KC5DAQ-22 Weather Reports


time (UTC)temp
F
wind
direction
speed
knots
gust
knots
rain 1hr
in
rain 24hr
in
rain mn
in
humidity
%
barometer
mb
20260506151103 81 148 2.6 6.1 0.00 0.00 0.00 86 1008.2
20260506151002 81 175 2.6 6.1 0.00 0.00 0.00 86 1008.1
20260506150901 81 197 2.6 6.1 0.00 0.00 0.00 87 1008.1
20260506150803 81 109 3.5 6.1 0.00 0.00 0.00 86 1008.2
20260506150703 81 123 4.3 6.1 0.00 0.00 0.00 87 1008.1
20260506150604 81 131 3.5 7.8 0.00 0.00 0.00 87 1008.1
20260506150504 81 100 3.5 7.8 0.00 0.00 0.00 86 1008.1
20260506150402 81 118 3.5 7.8 0.00 0.00 0.00 87 1008.1
20260506150304 81 69 3.5 7.8 0.00 0.00 0.00 86 1008.1
20260506150203 81 117 3.5 7.8 0.00 0.00 0.00 86 1008.1
20260506150002 81 120 2.6 7.8 0.00 0.00 0.00 87 1008.1
20260506145902 81 152 2.6 7.8 0.00 0.00 0.00 87 1008.1
20260506145801 81 176 3.5 7.8 0.00 0.00 0.00 86 1008.1
20260506145701 81 162 4.3 7.8 0.00 0.00 0.00 87 1008.1
20260506145603 81 195 3.5 5.2 0.00 0.00 0.00 87 1008.0
20260506145503 81 142 2.6 5.2 0.00 0.00 0.00 87 1008.0
20260506145403 81 164 2.6 5.2 0.00 0.00 0.00 87 1008.0
20260506145305 81 171 2.6 5.2 0.00 0.00 0.00 87 1007.9
20260506145204 81 203 1.7 5.2 0.00 0.00 0.00 88 1008.0
20260506145103 80 116 2.6 5.2 0.00 0.00 0.00 87 1007.9
20260506145003 80 135 3.5 5.2 0.00 0.00 0.00 87 1007.9
20260506144902 81 107 2.6 5.2 0.00 0.00 0.00 87 1007.9
20260506144804 81 113 2.6 5.2 0.00 0.00 0.00 87 1007.8
20260506144702 81 103 1.7 7.8 0.00 0.00 0.00 87 1007.8
20260506144602 81 103 1.7 7.8 0.00 0.00 0.00 87 1007.9
20260506144503 81 127 0.9 7.8 0.00 0.00 0.00 88 1007.8
20260506144402 81 124 1.7 7.8 0.00 0.00 0.00 88 1007.7
20260506144303 81 111 1.7 7.8 0.00 0.00 0.00 88 1007.7
20260506144202 80 138 2.6 7.8 0.00 0.00 0.00 88 1007.8
20260506144103 80 127 1.7 7.8 0.00 0.00 0.00 88 1007.6
20260506144003 80 131 1.7 7.8 0.00 0.00 0.00 88 1007.6
20260506143902 80 118 3.5 7.8 0.00 0.00 0.00 88 1007.7
20260506143803 80 145 3.5 7.8 0.00 0.00 0.00 88 1007.6
20260506143702 80 147 1.7 6.1 0.00 0.00 0.00 88 1007.7
20260506143602 80 111 1.7 6.1 0.00 0.00 0.00 88 1007.7
20260506143504 80 130 2.6 6.1 0.00 0.00 0.00 88 1007.7
20260506143403 80 148 3.5 6.1 0.00 0.00 0.00 88 1007.7
20260506143302 80 107 1.7 6.1 0.00 0.00 0.00 88 1007.7
20260506143202 80 116 1.7 6.1 0.00 0.00 0.00 88 1007.7
20260506143104 80 103 3.5 7.8 0.00 0.00 0.00 88 1007.7
20260506143004 80 113 3.5 7.8 0.00 0.00 0.00 89 1007.7
20260506142903 80 141 0.9 7.8 0.00 0.00 0.00 90 1007.6
20260506142803 80 141 0.9 7.8 0.00 0.00 0.00 90 1007.7
20260506142703 80 141 0.9 7.8 0.00 0.00 0.00 90 1007.6
20260506142603 80 141 0.9 7.8 0.00 0.00 0.00 90 1007.6
20260506142503 80 141 0.9 7.8 0.00 0.00 0.00 90 1007.6
20260506142403 80 124 1.7 7.8 0.00 0.00 0.00 90 1007.6
20260506142305 79 140 3.5 7.8 0.00 0.00 0.00 90 1007.6
20260506142201 79 117 3.5 7.8 0.00 0.00 0.00 91 1007.7
20260506142103 79 86 2.6 4.3 0.00 0.00 0.00 91 1007.7
20260506142003 79 104 2.6 4.3 0.00 0.00 0.00 91 1007.8
20260506141904 79 104 2.6 4.3 0.00 0.00 0.00 91 1007.7
20260506141803 79 104 2.6 4.3 0.00 0.00 0.00 91 1007.7
20260506141638 79 118 1.7 4.3 0.00 0.00 0.00 91 1007.8
20260506141537 79 114 1.7 3.5 0.00 0.00 0.00 91 1007.7
20260506141436 79 114 1.7 3.5 0.00 0.00 0.00 91 1007.8
20260506141337 79 114 1.7 3.5 0.00 0.00 0.00 91 1007.8
20260506141237 79 90 2.6 3.5 0.00 0.00 0.00 91 1007.8
20260506141138 79 90 2.6 4.3 0.00 0.00 0.00 91 1007.8
20260506141037 79 87 2.6 4.3 0.00 0.00 0.00 91 1007.8
20260506140938 79 99 1.7 4.3 0.00 0.00 0.00 92 1007.8
20260506140837 79 162 2.6 4.3 0.00 0.00 0.00 92 1007.9
20260506140737 79 93 2.6 4.3 0.00 0.00 0.00 92 1007.8
20260506140638 78 125 1.7 4.3 0.00 0.00 0.00 92 1007.8
20260506140537 78 154 1.7 4.3 0.00 0.00 0.00 92 1007.9
20260506140436 78 134 1.7 4.3 0.00 0.00 0.00 92 1007.8
20260506140337 78 109 2.6 4.3 0.00 0.00 0.00 92 1007.9
20260506140237 78 114 2.6 4.3 0.00 0.00 0.00 92 1007.8
20260506140137 78 137 2.6 4.3 0.00 0.00 0.00 92 1007.8
20260506140038 78 104 2.6 4.3 0.00 0.00 0.00 92 1007.8
20260506135938 78 103 2.6 4.3 0.00 0.00 0.00 92 1007.8
20260506135837 78 104 2.6 4.3 0.00 0.00 0.00 92 1007.8
20260506135736 78 103 2.6 4.3 0.00 0.00 0.00 93 1007.8
20260506135636 78 83 3.5 4.3 0.00 0.00 0.00 92 1007.8
20260506135538 78 114 2.6 4.3 0.00 0.00 0.00 93 1007.8
20260506135437 78 102 2.6 4.3 0.00 0.00 0.00 93 1007.8
20260506135336 78 100 2.6 5.2 0.00 0.00 0.00 93 1007.9
20260506135238 78 100 1.7 5.2 0.00 0.00 0.00 93 1007.8
20260506135136 78 97 1.7 5.2 0.00 0.00 0.00 93 1007.8
20260506135036 78 104 2.6 5.2 0.00 0.00 0.00 93 1008.0
20260506134937 78 104 2.6 5.2 0.00 0.00 0.00 93 1008.0
20260506134836 78 109 2.6 5.2 0.00 0.00 0.00 93 1008.0
20260506134734 78 111 2.6 5.2 0.00 0.00 0.00 93 1007.9
20260506134633 78 113 2.6 5.2 0.00 0.00 0.00 93 1007.9
20260506134532 77 89 3.5 5.2 0.00 0.00 0.00 93 1007.9
20260506134431 77 110 3.5 5.2 0.00 0.00 0.00 93 1008.0
20260506134330 77 110 3.5 4.3 0.00 0.00 0.00 94 1007.9
20260506134233 77 87 3.5 4.3 0.00 0.00 0.00 94 1007.9
20260506134133 77 100 3.5 4.3 0.00 0.00 0.00 93 1007.8
20260506134030 77 125 3.5 4.3 0.00 0.00 0.00 94 1007.9
20260506133932 77 106 3.5 3.5 0.00 0.00 0.00 94 1007.9
20260506133833 77 103 1.7 3.5 0.00 0.00 0.00 94 1007.9
20260506133732 77 103 1.7 4.3 0.00 0.00 0.00 94 1007.9
20260506133632 77 103 1.7 4.3 0.00 0.00 0.00 94 1007.9
20260506133532 77 103 1.7 4.3 0.00 0.00 0.00 94 1008.0
20260506133431 77 103 1.7 4.3 0.00 0.00 0.00 94 1008.0
20260506133332 77 102 1.7 4.3 0.00 0.00 0.00 94 1008.0
20260506133232 77 103 1.7 4.3 0.00 0.00 0.00 94 1008.0
20260506133131 77 103 2.6 4.3 0.00 0.00 0.00 94 1008.0
20260506133032 77 116 2.6 4.3 0.00 0.00 0.00 94 1008.0
20260506132930 77 144 2.6 4.3 0.00 0.00 0.00 94 1008.0
20260506132833 77 137 3.5 4.3 0.00 0.00 0.00 94 1008.0
20260506132731 77 99 2.6 4.3 0.00 0.00 0.00 94 1008.1
20260506132632 77 125 2.6 4.3 0.00 0.00 0.00 94 1008.1
20260506132533 77 123 2.6 4.3 0.00 0.00 0.00 94 1008.1
20260506132434 77 96 1.7 3.5 0.00 0.00 0.00 94 1008.1
20260506132330 77 92 1.7 3.5 0.00 0.00 0.00 94 1008.2
20260506132231 77 120 0.9 3.5 0.00 0.00 0.00 94 1008.1
20260506132131 77 117 0.9 3.5 0.00 0.00 0.00 94 1008.1
20260506132031 77 117 1.7 3.5 0.00 0.00 0.00 94 1008.0
20260506131931 77 117 1.7 3.5 0.00 0.00 0.00 94 1008.1
20260506131832 77 113 1.7 3.5 0.00 0.00 0.00 94 1008.1
20260506131731 77 92 0.9 3.5 0.00 0.00 0.00 94 1008.1
20260506131632 77 92 1.7 4.3 0.00 0.00 0.00 94 1008.1
20260506131531 77 141 1.7 4.3 0.00 0.00 0.00 94 1008.1
20260506131431 77 106 1.7 4.3 0.00 0.00 0.00 94 1008.1
20260506131330 77 133 1.7 4.3 0.00 0.00 0.00 95 1008.1
20260506131231 77 103 1.7 4.3 0.00 0.00 0.00 94 1008.0
20260506131132 77 106 1.7 4.3 0.00 0.00 0.00 95 1008.1
20260506131032 77 130 1.7 4.3 0.00 0.00 0.00 95 1008.1
20260506130931 77 103 1.7 4.3 0.00 0.00 0.00 95 1008.0
20260506130831 77 99 1.7 4.3 0.00 0.00 0.00 95 1008.0
20260506130732 76 130 1.7 4.3 0.00 0.00 0.00 95 1008.1
20260506130632 76 124 1.7 3.5 0.00 0.00 0.00 95 1008.1
20260506130531 76 121 1.7 3.5 0.00 0.00 0.00 95 1008.0
20260506130431 76 137 1.7 3.5 0.00 0.00 0.00 95 1008.0
20260506130334 76 138 1.7 3.5 0.00 0.00 0.00 95 1008.1
20260506130233 76 111 1.7 3.5 0.00 0.00 0.00 95 1008.0
20260506130130 76 104 1.7 3.5 0.00 0.00 0.00 95 1008.0
20260506130028 76 128 0.9 3.5 0.00 0.00 0.00 95 1008.0
20260506125925 76 109 0.9 3.5 0.00 0.00 0.00 95 1007.9
20260506125822 76 109 1.7 3.5 0.00 0.00 0.00 95 1008.0
20260506125722 76 111 1.7 3.5 0.00 0.00 0.00 95 1008.0
20260506125620 76 113 1.7 3.5 0.00 0.00 0.00 95 1008.0
20260506125518 76 113 1.7 3.5 0.00 0.00 0.00 95 1008.0
20260506125418 76 110 1.7 3.5 0.00 0.00 0.00 95 1008.0
20260506125314 76 162 1.7 3.5 0.00 0.00 0.00 95 1008.0
20260506125213 76 134 0.9 3.5 0.00 0.00 0.00 95 1007.9
20260506125112 76 125 0.9 3.5 0.00 0.00 0.00 95 1008.0
20260506125011 76 124 0.9 3.5 0.00 0.00 0.00 95 1008.0
20260506124909 76 127 0.9 3.5 0.00 0.00 0.00 95 1008.0
20260506124805 76 125 1.7 3.5 0.00 0.00 0.00 95 1008.0
20260506124703 76 141 0.9 3.5 0.00 0.00 0.00 95 1008.0
20260506124603 76 137 0.9 3.5 0.00 0.00 0.00 95 1008.0
20260506124505 76 137 1.7 3.5 0.00 0.00 0.00 95 1008.0
20260506124402 76 118 1.7 3.5 0.00 0.00 0.00 95 1008.0
20260506124303 76 149 1.7 3.5 0.00 0.00 0.00 95 1008.0
20260506124201 76 117 1.7 3.5 0.00 0.00 0.00 95 1008.0
20260506124103 76 157 1.7 3.5 0.00 0.00 0.00 95 1008.1
20260506124002 76 147 1.7 3.5 0.00 0.00 0.00 95 1007.9
20260506123903 76 120 1.7 3.5 0.00 0.00 0.00 95 1008.0
20260506123803 76 142 0.9 3.5 0.00 0.00 0.00 95 1008.0
20260506123702 76 142 1.7 3.5 0.00 0.00 0.00 95 1007.9
20260506123601 76 144 1.7 3.5 0.00 0.00 0.00 95 1007.9
20260506123501 76 140 1.7 3.5 0.00 0.00 0.00 95 1007.9
20260506123403 76 120 1.7 3.5 0.00 0.00 0.00 95 1007.9
20260506123302 76 110 1.7 3.5 0.00 0.00 0.00 95 1008.0
20260506123202 76 109 1.7 3.5 0.00 0.00 0.00 95 1007.9
20260506123104 76 149 1.7 3.5 0.00 0.00 0.00 95 1007.9
20260506123003 76 106 1.7 3.5 0.00 0.00 0.00 95 1007.9
20260506122901 76 124 1.7 3.5 0.00 0.00 0.00 95 1007.9
20260506122802 76 130 1.7 3.5 0.00 0.00 0.00 95 1007.8
20260506122703 76 130 0.9 2.6 0.00 0.00 0.00 95 1007.8
20260506122603 76 135 0.9 2.6 0.00 0.00 0.00 95 1007.8
20260506122502 76 135 0.9 2.6 0.00 0.00 0.00 95 1007.8
20260506122403 76 134 0.0 1.7 0.00 0.00 0.00 95 1007.9
20260506122301 76 130 0.0 0.0 0.00 0.00 0.00 95 1007.9
20260506122202 76 130 0.0 0.0 0.00 0.00 0.00 95 1007.9
20260506122104 76 130 0.0 1.7 0.00 0.00 0.00 95 1007.9
20260506122004 76 130 0.0 1.7 0.00 0.00 0.00 95 1007.9
20260506121902 76 130 0.0 1.7 0.00 0.00 0.00 95 1007.9
20260506121804 76 130 0.0 1.7 0.00 0.00 0.00 95 1007.9
20260506121702 76 131 0.0 1.7 0.00 0.00 0.00 95 1007.8
20260506121603 76 131 0.0 1.7 0.00 0.00 0.00 95 1007.8
20260506121502 76 131 0.0 2.6 0.00 0.00 0.00 95 1007.8
20260506121403 76 131 0.0 2.6 0.00 0.00 0.00 95 1007.7
20260506121302 76 131 0.0 2.6 0.00 0.00 0.00 95 1007.7
20260506121202 76 131 0.9 2.6 0.00 0.00 0.00 95 1007.7
20260506121104 76 131 0.9 2.6 0.00 0.00 0.00 95 1007.7
20260506121004 76 131 0.9 2.6 0.00 0.00 0.00 95 1007.7
20260506120902 76 131 0.9 2.6 0.00 0.00 0.00 95 1007.7
20260506120802 76 133 0.0 3.5 0.00 0.00 0.00 95 1007.7
20260506120702 76 134 0.9 3.5 0.00 0.00 0.00 95 1007.7
20260506120604 76 134 1.7 3.5 0.00 0.00 0.00 95 1007.7
20260506120503 76 133 0.9 3.5 0.00 0.00 0.00 95 1007.7
20260506120404 76 134 0.9 3.5 0.00 0.00 0.00 95 1007.6
20260506120303 76 133 0.9 3.5 0.00 0.00 0.00 95 1007.6
20260506120202 76 140 0.9 3.5 0.00 0.00 0.00 95 1007.6
20260506120003 76 166 1.7 3.5 0.00 0.00 0.00 95 1007.5
20260506115903 76 172 1.7 3.5 0.00 0.00 0.00 95 1007.5
20260506115803 76 173 1.7 3.5 0.00 0.00 0.00 95 1007.5
20260506115703 76 100 1.7 3.5 0.00 0.00 0.00 95 1007.5
20260506115602 76 121 1.7 3.5 0.00 0.00 0.00 95 1007.4
20260506115504 76 173 0.9 3.5 0.00 0.00 0.00 95 1007.5
20260506115404 75 176 1.7 3.5 0.00 0.00 0.00 95 1007.5
20260506115306 75 180 0.9 3.5 0.00 0.00 0.00 95 1007.4
20260506115202 75 131 0.9 3.5 0.00 0.00 0.00 95 1007.5
20260506115104 75 131 1.7 3.5 0.00 0.00 0.00 95 1007.5
20260506115003 75 131 1.7 3.5 0.00 0.00 0.00 95 1007.4
20260506114902 75 107 0.9 3.5 0.00 0.00 0.00 95 1007.4
20260506114802 75 134 0.9 3.5 0.00 0.00 0.00 95 1007.4
20260506114704 75 131 1.7 3.5 0.00 0.00 0.00 95 1007.4
20260506114602 75 138 1.7 3.5 0.00 0.00 0.00 95 1007.3
20260506114504 75 166 1.7 3.5 0.00 0.00 0.00 95 1007.3
20260506114402 75 168 1.7 3.5 0.00 0.00 0.00 96 1007.3
20260506114302 75 125 0.9 3.5 0.00 0.00 0.00 95 1007.2
20260506114202 75 137 1.7 3.5 0.00 0.00 0.00 95 1007.3
20260506114102 75 137 1.7 3.5 0.00 0.00 0.00 95 1007.3
20260506114005 75 173 1.7 4.3 0.00 0.00 0.00 95 1007.2
20260506113902 75 168 1.7 4.3 0.00 0.00 0.00 95 1007.2
20260506113802 75 144 1.7 4.3 0.00 0.00 0.00 95 1007.2
20260506113703 75 151 1.7 4.3 0.00 0.00 0.00 95 1007.2
20260506113603 75 186 1.7 4.3 0.00 0.00 0.00 95 1007.2
20260506113502 75 152 1.7 4.3 0.00 0.00 0.00 95 1007.2
20260506113402 75 182 1.7 4.3 0.00 0.00 0.00 95 1007.2
20260506113303 75 173 1.7 4.3 0.00 0.00 0.00 95 1007.1
20260506113202 75 151 2.6 4.3 0.00 0.00 0.00 96 1007.1
20260506113103 75 172 1.7 4.3 0.00 0.00 0.00 95 1007.1
20260506113004 75 149 0.9 3.5 0.00 0.00 0.00 95 1007.0
20260506112902 75 148 0.9 3.5 0.00 0.00 0.00 95 1007.1
20260506112802 75 149 1.7 3.5 0.00 0.00 0.00 95 1007.1
20260506112702 75 152 1.7 3.5 0.00 0.00 0.00 95 1007.1
20260506112604 75 148 1.7 3.5 0.00 0.00 0.00 95 1007.0
20260506112502 75 148 0.9 3.5 0.00 0.00 0.00 95 1007.0
20260506112402 75 147 0.9 3.5 0.00 0.00 0.00 95 1007.0
20260506112306 75 147 0.0 3.5 0.00 0.00 0.00 95 1007.0
20260506112203 75 161 0.9 3.5 0.00 0.00 0.00 95 1006.9
20260506112103 75 172 1.7 3.5 0.00 0.00 0.00 95 1006.9
20260506112003 75 135 1.7 2.6 0.00 0.00 0.00 95 1006.9
20260506111903 75 135 1.7 2.6 0.00 0.00 0.00 95 1006.7
20260506111802 75 102 0.9 2.6 0.00 0.00 0.00 95 1006.7
20260506111702 75 100 0.9 2.6 0.00 0.00 0.00 95 1006.8
20260506111603 75 144 0.9 2.6 0.00 0.00 0.00 95 1006.8
20260506111503 75 142 0.9 2.6 0.00 0.00 0.00 95 1006.7
20260506111404 75 142 0.9 2.6 0.00 0.00 0.00 95 1006.8
20260506111303 75 142 0.0 2.6 0.00 0.00 0.00 95 1006.8
20260506111202 75 144 0.9 2.6 0.00 0.00 0.00 95 1006.8
20260506111102 75 155 0.9 2.6 0.00 0.00 0.00 95 1006.8
20260506111003 75 148 0.9 2.6 0.00 0.00 0.00 95 1006.8
20260506110904 75 127 0.0 2.6 0.00 0.00 0.00 95 1006.8
20260506110803 75 127 0.0 2.6 0.00 0.00 0.00 95 1006.7
20260506110702 75 140 0.0 2.6 0.00 0.00 0.00 95 1006.8
20260506110603 75 140 0.0 2.6 0.00 0.00 0.00 95 1006.8
20260506110504 75 131 0.9 2.6 0.00 0.00 0.00 95 1006.7
20260506110402 75 131 0.9 2.6 0.00 0.00 0.00 95 1006.7
20260506110302 75 130 0.9 2.6 0.00 0.00 0.00 95 1006.7
20260506110203 75 144 0.9 3.5 0.00 0.00 0.00 95 1006.7
20260506110002 75 135 1.7 3.5 0.00 0.00 0.00 95 1006.7
20260506105903 75 144 1.7 3.5 0.00 0.00 0.00 95 1006.6
20260506105802 75 147 0.9 3.5 0.00 0.00 0.00 95 1006.7
20260506105703 75 145 0.9 3.5 0.00 0.00 0.00 95 1006.6
20260506105603 75 145 0.9 3.5 0.00 0.00 0.00 95 1006.6
20260506105504 75 147 0.9 3.5 0.00 0.00 0.00 94 1006.6
20260506105402 75 144 1.7 3.5 0.00 0.00 0.00 95 1006.7
20260506105304 75 145 1.7 3.5 0.00 0.00 0.00 94 1006.7
20260506105203 75 145 1.7 3.5 0.00 0.00 0.00 95 1006.7
20260506105102 75 147 1.7 3.5 0.00 0.00 0.00 95 1006.7
20260506105003 75 162 0.9 3.5 0.00 0.00 0.00 95 1006.7
20260506104904 75 164 1.7 3.5 0.00 0.00 0.00 95 1006.8
20260506104802 75 144 1.7 3.5 0.00 0.00 0.00 95 1006.7
20260506104702 75 134 1.7 3.5 0.00 0.00 0.00 95 1006.7
20260506104601 75 142 1.7 3.5 0.00 0.00 0.00 95 1006.7
20260506104504 75 142 1.7 3.5 0.00 0.00 0.00 95 1006.6
20260506104404 75 155 1.7 3.5 0.00 0.00 0.00 95 1006.7
20260506104302 75 137 1.7 4.3 0.00 0.00 0.00 95 1006.7
20260506104203 75 148 1.7 4.3 0.00 0.00 0.00 95 1006.7
20260506104102 75 151 1.7 4.3 0.00 0.00 0.00 94 1006.7
20260506104002 75 161 2.6 4.3 0.00 0.00 0.00 94 1006.7
20260506103900 75 154 1.7 4.3 0.00 0.00 0.00 94 1006.7
20260506103800 75 162 0.9 4.3 0.00 0.00 0.00 94 1006.7
20260506103657 75 138 1.7 4.3 0.00 0.00 0.00 94 1006.7
20260506103557 75 178 1.7 4.3 0.00 0.00 0.00 94 1006.7
20260506103454 75 159 1.7 4.3 0.00 0.00 0.00 94 1006.7
20260506103353 75 182 1.7 4.3 0.00 0.00 0.00 94 1006.7
20260506103251 75 130 0.9 4.3 0.00 0.00 0.00 94 1006.6
20260506103151 75 140 0.0 4.3 0.00 0.00 0.00 94 1006.7
20260506103049 75 199 0.9 4.3 0.00 0.00 0.00 94 1006.7
20260506102945 75 199 1.7 4.3 0.00 0.00 0.00 94 1006.7
20260506102845 75 202 1.7 4.3 0.00 0.00 0.00 94 1006.6
20260506102742 75 125 1.7 4.3 0.00 0.00 0.00 94 1006.7
20260506102641 75 186 1.7 4.3 0.00 0.00 0.00 94 1006.7
20260506102539 75 140 1.7 4.3 0.00 0.00 0.00 94 1006.6
20260506102439 75 155 1.7 4.3 0.00 0.00 0.00 94 1006.6
20260506102335 75 183 1.7 4.3 0.00 0.00 0.00 94 1006.6
20260506102235 75 144 1.7 4.3 0.00 0.00 0.00 94 1006.5
20260506102133 75 171 1.7 5.2 0.00 0.00 0.00 94 1006.6
20260506102034 75 189 1.7 5.2 0.00 0.00 0.00 94 1006.6
20260506101931 75 161 1.7 5.2 0.00 0.00 0.00 94 1006.6
20260506101831 75 173 1.7 5.2 0.00 0.00 0.00 94 1006.6
20260506101732 75 121 2.6 5.2 0.00 0.00 0.00 94 1006.7
20260506101632 75 79 1.7 5.2 0.00 0.00 0.00 94 1006.7
20260506101530 75 159 1.7 5.2 0.00 0.00 0.00 94 1006.7
20260506101432 75 134 2.6 5.2 0.00 0.00 0.00 94 1006.7
20260506101332 75 214 1.7 5.2 0.00 0.00 0.00 94 1006.6
20260506101232 75 148 2.6 5.2 0.00 0.00 0.00 94 1006.6
20260506101131 75 161 2.6 5.2 0.00 0.00 0.00 94 1006.7
20260506101032 75 176 1.7 5.2 0.00 0.00 0.00 94 1006.6
20260506100930 75 162 2.6 5.2 0.00 0.00 0.00 94 1006.7
20260506100831 75 207 2.6 5.2 0.00 0.00 0.00 94 1006.6
20260506100732 75 141 2.6 5.2 0.00 0.00 0.00 94 1006.7
20260506100632 75 171 2.6 5.2 0.00 0.00 0.00 94 1006.7
20260506100532 75 142 2.6 5.2 0.00 0.00 0.00 94 1006.7
20260506100432 75 183 3.5 5.2 0.00 0.00 0.00 94 1006.6
20260506100332 75 199 3.5 5.2 0.00 0.00 0.00 94 1006.6
20260506100231 75 157 2.6 5.2 0.00 0.00 0.00 94 1006.5
20260506100132 75 182 2.6 7.8 0.00 0.00 0.00 94 1006.5
20260506100032 75 137 2.6 8.7 0.00 0.00 0.00 94 1006.5
20260506095931 76 162 2.6 8.7 0.00 0.00 0.00 94 1006.6
20260506095830 75 138 2.6 8.7 0.00 0.00 0.00 94 1006.5
20260506095732 76 124 1.7 8.7 0.00 0.00 0.00 94 1006.5
20260506095633 76 175 1.7 8.7 0.00 0.00 0.00 94 1006.5
20260506095531 76 157 2.6 8.7 0.00 0.00 0.00 94 1006.4
20260506095431 76 197 1.7 8.7 0.00 0.00 0.00 94 1006.4
20260506095333 76 178 3.5 8.7 0.00 0.00 0.00 94 1006.4
20260506095232 76 130 3.5 8.7 0.00 0.00 0.00 94 1006.4
20260506095131 76 116 2.6 10.4 0.00 0.00 0.00 93 1006.3
20260506095032 76 171 2.6 10.4 0.00 0.00 0.00 94 1006.3
20260506094932 76 131 3.5 10.4 0.00 0.00 0.00 94 1006.3
20260506094832 76 127 4.3 10.4 0.00 0.00 0.00 94 1006.2
20260506094731 76 168 3.5 10.4 0.00 0.00 0.00 94 1006.2
20260506094632 76 190 3.5 10.4 0.00 0.00 0.00 94 1006.2
20260506094531 76 235 3.5 10.4 0.00 0.00 0.00 94 1006.2
20260506094432 76 212 3.5 10.4 0.00 0.00 0.00 94 1006.2
20260506094332 76 168 4.3 10.4 0.00 0.00 0.00 94 1006.2
20260506094232 76 165 4.3 10.4 0.00 0.00 0.00 94 1006.2
20260506094131 76 157 3.5 9.6 0.00 0.00 0.00 94 1006.2
20260506094032 76 159 3.5 9.6 0.00 0.00 0.00 93 1006.2
20260506093932 76 133 4.3 9.6 0.00 0.00 0.00 93 1006.2
20260506093831 76 127 4.3 9.6 0.00 0.00 0.00 93 1006.2
20260506093731 76 168 3.5 8.7 0.00 0.00 0.00 93 1006.2
20260506093631 76 157 2.6 8.7 0.00 0.00 0.00 93 1006.2
20260506093532 76 213 3.5 9.6 0.00 0.00 0.00 93 1006.3
20260506093430 76 131 3.5 10.4 0.00 0.00 0.00 93 1006.3
20260506093331 76 149 2.6 10.4 0.00 0.00 0.00 93 1006.3
20260506093231 76 152 3.5 10.4 0.00 0.00 0.00 93 1006.3
20260506093130 76 188 4.3 10.4 0.00 0.00 0.00 93 1006.3
20260506093030 76 109 4.3 10.4 0.00 0.00 0.00 93 1006.3
20260506092930 76 142 3.5 10.4 0.00 0.00 0.00 93 1006.3
20260506092832 76 190 3.5 11.3 0.00 0.00 0.00 93 1006.3
20260506092730 76 168 5.2 11.3 0.00 0.00 0.00 93 1006.3
20260506092630 76 147 5.2 11.3 0.00 0.00 0.00 93 1006.4
20260506092532 76 179 4.3 11.3 0.00 0.00 0.00 93 1006.4
20260506092431 76 214 3.5 11.3 0.00 0.00 0.00 93 1006.4
20260506092331 76 183 4.3 11.3 0.00 0.00 0.00 93 1006.3
20260506092232 76 106 4.3 11.3 0.00 0.00 0.00 93 1006.4
20260506092132 76 138 4.3 11.3 0.00 0.00 0.00 93 1006.3
20260506092029 76 192 5.2 11.3 0.00 0.00 0.00 93 1006.3
20260506091930 76 134 5.2 11.3 0.00 0.00 0.00 93 1006.3
20260506091831 76 152 4.3 9.6 0.00 0.00 0.00 93 1006.3
20260506091731 76 165 5.2 9.6 0.00 0.00 0.00 93 1006.3
20260506091632 76 155 4.3 9.6 0.00 0.00 0.00 93 1006.3
20260506091532 76 185 3.5 8.7 0.00 0.00 0.00 93 1006.4
20260506091431 76 199 3.5 8.7 0.00 0.00 0.00 93 1006.4
20260506091329 76 99 3.5 9.6 0.00 0.00 0.00 93 1006.5
20260506091229 76 209 4.3 10.4 0.00 0.00 0.00 92 1006.4
20260506091131 76 152 4.3 10.4 0.00 0.00 0.00 92 1006.5
20260506091029 76 92 2.6 10.4 0.00 0.00 0.00 92 1006.5
20260506090929 76 117 3.5 10.4 0.00 0.00 0.00 92 1006.4
20260506090829 76 151 3.5 10.4 0.00 0.00 0.00 92 1006.5
20260506090731 76 183 2.6 10.4 0.00 0.00 0.00 92 1006.5
20260506090629 76 175 2.6 10.4 0.00 0.00 0.00 92 1006.5
20260506090530 76 142 5.2 10.4 0.00 0.00 0.00 92 1006.5
20260506090430 76 175 7.0 10.4 0.00 0.00 0.00 92 1006.4
20260506090330 76 178 5.2 10.4 0.00 0.00 0.00 92 1006.4
20260506090230 76 164 4.3 10.4 0.00 0.00 0.00 92 1006.4
20260506090130 76 186 3.5 10.4 0.00 0.00 0.00 92 1006.4
20260506090031 76 162 3.5 10.4 0.00 0.00 0.00 92 1006.4
20260506085931 76 113 4.3 10.4 0.00 0.00 0.00 92 1006.4
20260506085829 76 189 4.3 10.4 0.00 0.00 0.00 92 1006.4
20260506085731 76 192 4.3 10.4 0.00 0.00 0.00 92 1006.4
20260506085629 76 231 4.3 10.4 0.00 0.00 0.00 92 1006.5
20260506085531 76 121 6.1 10.4 0.00 0.00 0.00 92 1006.5
20260506085431 76 145 6.1 10.4 0.00 0.00 0.00 92 1006.5
20260506085329 76 195 4.3 10.4 0.00 0.00 0.00 92 1006.5
20260506085229 76 172 4.3 10.4 0.00 0.00 0.00 92 1006.5
20260506085130 76 159 4.3 10.4 0.00 0.00 0.00 92 1006.5
20260506085030 76 166 4.3 10.4 0.00 0.00 0.00 92 1006.5
20260506084930 76 142 3.5 10.4 0.00 0.00 0.00 92 1006.5
20260506084829 76 190 3.5 10.4 0.00 0.00 0.00 92 1006.6
20260506084731 76 140 5.2 10.4 0.00 0.00 0.00 92 1006.5
20260506084630 76 221 4.3 10.4 0.00 0.00 0.00 92 1006.6
20260506084530 76 159 3.5 10.4 0.00 0.00 0.00 92 1006.6
20260506084430 76 93 4.3 11.3 0.00 0.00 0.00 92 1006.6
20260506084331 77 166 5.2 11.3 0.00 0.00 0.00 92 1006.6
20260506084230 77 195 4.3 11.3 0.00 0.00 0.00 92 1006.6
20260506084129 77 111 4.3 11.3 0.00 0.00 0.00 92 1006.7
20260506084030 77 186 5.2 11.3 0.00 0.00 0.00 92 1006.7
20260506083929 77 118 5.2 11.3 0.00 0.00 0.00 92 1006.7
20260506083828 77 180 5.2 11.3 0.00 0.00 0.00 92 1006.8
20260506083728 77 193 5.2 11.3 0.00 0.00 0.00 92 1006.7
20260506083631 77 195 5.2 11.3 0.00 0.00 0.00 92 1006.7
20260506083528 77 210 5.2 11.3 0.00 0.00 0.00 92 1006.7
20260506083429 77 125 4.3 10.4 0.00 0.00 0.00 91 1006.7
20260506083330 77 110 4.3 10.4 0.00 0.00 0.00 91 1006.7
20260506083229 77 158 4.3 13.9 0.00 0.00 0.00 91 1006.7
20260506083129 77 158 3.5 13.9 0.00 0.00 0.00 91 1006.7
20260506083030 77 162 4.3 13.9 0.00 0.00 0.00 91 1006.7
20260506082930 77 159 5.2 13.9 0.00 0.00 0.00 91 1006.7
20260506082832 77 148 4.3 13.9 0.00 0.00 0.00 91 1006.7
20260506082729 77 192 3.5 13.9 0.00 0.00 0.00 91 1006.7
20260506082628 77 182 4.3 13.9 0.00 0.00 0.00 91 1006.7
20260506082529 77 240 6.1 13.9 0.00 0.00 0.00 91 1006.7
20260506082429 77 141 7.0 13.9 0.00 0.00 0.00 91 1006.7
20260506082329 77 161 5.2 13.9 0.00 0.00 0.00 91 1006.7
20260506082230 77 171 3.5 10.4 0.00 0.00 0.00 91 1006.7
20260506082129 77 180 2.6 10.4 0.00 0.00 0.00 91 1006.7
20260506082029 77 106 3.5 10.4 0.00 0.00 0.00 91 1006.7
20260506081929 77 182 5.2 10.4 0.00 0.00 0.00 91 1006.7
20260506081829 77 193 4.3 10.4 0.00 0.00 0.00 91 1006.8
20260506081729 77 200 3.5 9.6 0.00 0.00 0.00 91 1006.7
20260506081629 77 288 3.5 10.4 0.00 0.00 0.00 91 1006.7
20260506081530 77 179 3.5 10.4 0.00 0.00 0.00 91 1006.8
20260506081428 77 116 3.5 10.4 0.00 0.00 0.00 91 1006.8
20260506081329 77 204 1.7 10.4 0.00 0.00 0.00 91 1006.8
20260506081231 77 199 2.6 10.4 0.00 0.00 0.00 91 1006.8
20260506081128 77 180 3.5 10.4 0.00 0.00 0.00 91 1006.8
20260506081028 77 140 4.3 10.4 0.00 0.00 0.00 91 1006.9
20260506080928 77 204 5.2 10.4 0.00 0.00 0.00 91 1006.9
20260506080829 77 197 5.2 10.4 0.00 0.00 0.00 91 1006.8
20260506080729 77 226 4.3 10.4 0.00 0.00 0.00 91 1006.9
20260506080629 77 92 4.3 9.6 0.00 0.00 0.00 91 1006.9
20260506080530 77 193 6.1 9.6 0.00 0.00 0.00 91 1006.9
20260506080430 77 234 5.2 9.6 0.00 0.00 0.00 91 1006.9
20260506080320 77 165 5.2 9.6 0.00 0.00 0.00 91 1006.9
20260506080220 77 235 5.2 9.6 0.00 0.00 0.00 91 1006.9
20260506080119 77 188 3.5 9.6 0.00 0.00 0.00 91 1006.9
20260506073503 77 158 3.5 8.7 0.00 0.00 0.00 91 1007.1
20260506073404 77 171 2.6 8.7 0.00 0.00 0.00 91 1007.1
20260506073302 77 111 3.5 8.7 0.00 0.00 0.00 91 1007.1
20260506073202 77 130 4.3 8.7 0.00 0.00 0.00 91 1007.1
20260506073101 77 220 3.5 8.7 0.00 0.00 0.00 91 1007.1
20260506073004 77 130 4.3 8.7 0.00 0.00 0.00 91 1007.1
20260506072903 77 161 4.3 8.7 0.00 0.00 0.00 91 1007.2
20260506072802 77 157 3.5 8.7 0.00 0.00 0.00 91 1007.2
20260506072703 77 206 5.2 9.6 0.00 0.00 0.00 91 1007.1
20260506072603 77 185 4.3 10.4 0.00 0.00 0.00 91 1007.3
20260506072503 77 204 3.5 10.4 0.00 0.00 0.00 91 1007.2
20260506072404 77 162 2.6 10.4 0.00 0.00 0.00 91 1007.2
20260506072305 77 114 3.5 10.4 0.00 0.00 0.00 91 1007.1
20260506072203 77 131 3.5 10.4 0.00 0.00 0.00 91 1007.2
20260506072102 77 190 3.5 10.4 0.00 0.00 0.00 91 1007.2
20260506071958 77 140 3.5 10.4 0.00 0.00 0.00 91 1007.2
20260506071859 77 175 4.3 10.4 0.00 0.00 0.00 91 1007.2
20260506071756 77 135 5.2 10.4 0.00 0.00 0.00 91 1007.3
20260506071654 77 149 4.3 10.4 0.00 0.00 0.00 91 1007.3
20260506071553 77 203 4.3 10.4 0.00 0.00 0.00 91 1007.3
20260506071453 77 168 4.3 10.4 0.00 0.00 0.00 91 1007.3
20260506071350 77 164 4.3 8.7 0.00 0.00 0.00 91 1007.3
20260506071249 77 134 4.3 8.7 0.00 0.00 0.00 91 1007.3
20260506071147 77 188 3.5 8.7 0.00 0.00 0.00 91 1007.3
20260506071047 77 134 3.5 12.2 0.00 0.00 0.00 91 1007.4
20260506070946 77 123 3.5 12.2 0.00 0.00 0.00 91 1007.3
20260506070842 77 137 3.5 12.2 0.00 0.00 0.00 91 1007.3
20260506070741 77 204 3.5 12.2 0.00 0.00 0.00 91 1007.4
20260506070640 77 171 5.2 12.2 0.00 0.00 0.00 91 1007.4
20260506070537 77 141 4.3 12.2 0.00 0.00 0.00 91 1007.4
20260506070437 77 142 3.5 12.2 0.00 0.00 0.00 91 1007.4
20260506070335 77 137 3.5 13.0 0.00 0.00 0.00 91 1007.4
20260506070233 77 165 5.2 13.0 0.00 0.00 0.00 91 1007.5
20260506070134 77 142 5.2 13.0 0.00 0.00 0.00 91 1007.4
20260506062427 77 209 5.2 10.4 0.00 0.00 0.00 91 1007.6
20260506062326 77 171 5.2 10.4 0.00 0.00 0.00 91 1007.5
20260506062227 77 171 2.6 7.8 0.00 0.00 0.00 91 1007.6
20260506062127 77 213 3.5 9.6 0.00 0.00 0.00 91 1007.6
20260506062026 77 169 4.3 9.6 0.00 0.00 0.00 91 1007.5
20260506061928 77 227 4.3 9.6 0.00 0.00 0.00 91 1007.6
20260506061827 77 116 3.5 9.6 0.00 0.00 0.00 92 1007.6
20260506061726 77 117 1.7 9.6 0.00 0.00 0.00 92 1007.7
20260506061626 77 113 0.9 9.6 0.00 0.00 0.00 92 1007.7
20260506061526 77 161 2.6 9.6 0.00 0.00 0.00 92 1007.7
20260506061427 77 127 3.5 9.6 0.00 0.00 0.00 92 1007.7
20260506061326 77 190 4.3 9.6 0.00 0.00 0.00 92 1007.7
20260506061226 77 157 4.3 9.6 0.00 0.00 0.00 92 1007.7
20260506061126 77 193 3.5 6.1 0.00 0.00 0.00 92 1007.7
20260506061027 77 186 2.6 6.1 0.00 0.00 0.00 92 1007.7
20260506060926 77 148 2.6 6.1 0.00 0.00 0.00 92 1007.7
20260506060825 77 141 3.5 6.1 0.00 0.00 0.00 92 1007.7
20260506060726 77 141 2.6 6.1 0.00 0.00 0.00 92 1007.7
20260506060625 77 118 1.7 7.8 0.00 0.00 0.00 92 1007.7
20260506060525 77 128 2.6 7.8 0.00 0.00 0.00 92 1007.7
20260506060426 77 142 2.6 7.8 0.00 0.00 0.00 92 1007.7
20260506060325 77 110 2.6 7.8 0.00 0.00 0.00 92 1007.6
20260506060226 77 114 2.6 7.8 0.00 0.00 0.00 92 1007.7
20260506060125 77 103 1.7 7.8 0.00 0.00 0.00 92 1007.6
20260506051403 77 0 2.6 6.1 0.00 0.00 0.00 92 1007.6
20260506051303 77 71 2.6 6.1 0.00 0.00 0.00 92 1007.7
20260506051202 77 55 3.5 6.1 0.00 0.00 0.00 92 1007.6
20260506051102 77 62 2.6 6.1 0.00 0.00 0.00 92 1007.5
20260506051003 77 56 1.7 6.1 0.00 0.00 0.00 92 1007.5
20260506050902 77 58 3.5 6.1 0.00 0.00 0.00 92 1007.4
20260506050803 77 42 4.3 6.1 0.00 0.00 0.00 92 1007.4
20260506050703 77 63 3.5 7.8 0.00 0.00 0.00 92 1007.4
20260506050602 77 65 3.5 7.8 0.00 0.00 0.00 92 1007.4
20260506050503 77 0 3.5 7.8 0.00 0.00 0.00 92 1007.4
20260506050404 77 56 1.7 7.8 0.00 0.00 0.00 92 1007.5
20260506050302 77 35 2.6 7.8 0.00 0.00 0.00 92 1007.4
20260506050202 77 0 3.5 7.8 0.00 0.00 0.00 92 1007.5
20260506050103 77 52 3.5 7.8 0.00 0.00 0.00 92 1007.4
20260506045103 77 0 4.3 10.4 0.00 0.00 0.00 92 1007.6
20260506045003 77 37 3.5 10.4 0.00 0.00 0.00 92 1007.7
20260506044902 77 0 3.5 10.4 0.00 0.00 0.00 92 1007.6
20260506044801 77 55 3.5 10.4 0.00 0.00 0.00 92 1007.7
20260506044701 77 34 4.3 10.4 0.00 0.00 0.00 92 1007.7
20260506044603 77 0 4.3 10.4 0.00 0.00 0.00 92 1007.6
20260506044504 77 0 4.3 8.7 0.00 0.00 0.00 92 1007.6
20260506044402 77 56 5.2 8.7 0.00 0.00 0.00 92 1007.6
20260506044302 77 0 5.2 8.7 0.00 0.00 0.00 92 1007.7
20260506044202 77 59 3.5 8.7 0.00 0.00 0.00 92 1007.7
20260506044101 77 59 1.7 8.7 0.00 0.00 0.00 92 1007.7
20260506044002 77 49 3.5 8.7 0.00 0.00 0.00 91 1007.7
20260506043904 77 52 3.5 8.7 0.00 0.00 0.00 91 1007.7
20260506043802 77 51 4.3 8.7 0.00 0.00 0.00 91 1007.7
20260506043702 77 49 3.5 7.8 0.00 0.00 0.00 91 1007.7
20260506043603 77 42 2.6 7.8 0.00 0.00 0.00 91 1007.7
20260506043503 77 0 1.7 7.8 0.00 0.00 0.00 91 1007.7
20260506043402 77 179 3.5 7.8 0.00 0.00 0.00 91 1007.7
20260506043303 77 147 3.5 7.8 0.00 0.00 0.00 91 1007.7
20260506043202 77 107 1.7 8.7 0.00 0.00 0.00 91 1007.7
20260506043103 77 172 0.9 8.7 0.00 0.00 0.00 91 1007.6
20260506043002 77 152 1.7 8.7 0.00 0.00 0.00 91 1007.6
20260506042903 77 173 3.5 8.7 0.00 0.00 0.00 91 1007.6
20260506042802 77 173 3.5 8.7 0.00 0.00 0.00 91 1007.6
20260506042702 77 111 3.5 8.7 0.00 0.00 0.00 91 1007.6
20260506042603 77 142 4.3 8.7 0.00 0.00 0.00 91 1007.5
20260506042502 77 183 4.3 10.4 0.00 0.00 0.00 91 1007.5
20260506042403 77 179 4.3 10.4 0.00 0.00 0.00 91 1007.5
20260506042305 77 148 3.5 10.4 0.00 0.00 0.00 91 1007.5
20260506042203 77 158 2.6 10.4 0.00 0.00 0.00 91 1007.5
20260506042102 77 214 2.6 10.4 0.00 0.00 0.00 91 1007.5
20260506042004 77 196 3.5 10.4 0.00 0.00 0.00 90 1007.5
20260506041902 77 157 3.5 10.4 0.00 0.00 0.00 90 1007.5
20260506041803 77 185 3.5 10.4 0.00 0.00 0.00 90 1007.4
20260506041702 77 148 5.2 10.4 0.00 0.00 0.00 90 1007.5
20260506041603 77 173 5.2 10.4 0.00 0.00 0.00 90 1007.5
20260506041504 77 161 3.5 12.2 0.00 0.00 0.00 90 1007.4
20260506041403 77 209 4.3 12.2 0.00 0.00 0.00 90 1007.5
20260506041303 77 158 4.3 12.2 0.00 0.00 0.00 90 1007.5
20260506041202 77 190 5.2 12.2 0.00 0.00 0.00 90 1007.4
20260506041102 77 145 4.3 12.2 0.00 0.00 0.00 90 1007.4
20260506041003 78 171 4.3 12.2 0.00 0.00 0.00 90 1007.4
20260506040903 78 176 6.1 12.2 0.00 0.00 0.00 89 1007.4
20260506040803 78 152 6.1 13.0 0.00 0.00 0.00 89 1007.4
20260506040703 78 171 7.0 13.0 0.00 0.00 0.00 89 1007.4
20260506040603 78 144 6.1 13.0 0.00 0.00 0.00 89 1007.4
20260506040503 78 183 5.2 13.0 0.00 0.00 0.00 89 1007.4
20260506040402 78 127 4.3 13.0 0.00 0.00 0.00 89 1007.4
20260506040303 78 140 5.2 13.0 0.00 0.00 0.00 89 1007.4
20260506040204 78 213 5.2 13.0 0.00 0.00 0.00 89 1007.4
20260506040002 78 189 7.0 13.0 0.00 0.00 0.00 89 1007.4
20260506035904 78 135 7.0 13.0 0.00 0.00 0.00 89 1007.4
20260506035803 78 152 6.1 12.2 0.00 0.00 0.00 89 1007.4
20260506035701 78 178 5.2 12.2 0.00 0.00 0.00 89 1007.3
20260506035602 78 147 7.0 12.2 0.00 0.00 0.00 89 1007.4
20260506035504 78 149 6.1 12.2 0.00 0.00 0.00 89 1007.4
20260506035402 78 154 5.2 12.2 0.00 0.00 0.00 89 1007.4
20260506035305 78 155 5.2 10.4 0.00 0.00 0.00 89 1007.4
20260506035203 78 152 4.3 10.4 0.00 0.00 0.00 89 1007.5
20260506035103 78 147 5.2 10.4 0.00 0.00 0.00 89 1007.5
20260506035002 78 120 5.2 10.4 0.00 0.00 0.00 89 1007.4
20260506034903 78 185 4.3 10.4 0.00 0.00 0.00 89 1007.5
20260506034804 78 94 4.3 11.3 0.00 0.00 0.00 89 1007.4
20260506034702 78 127 3.5 11.3 0.00 0.00 0.00 89 1007.4
20260506034602 78 199 2.6 11.3 0.00 0.00 0.00 89 1007.4
20260506034503 78 137 3.5 11.3 0.00 0.00 0.00 89 1007.4
20260506034402 78 128 2.6 11.3 0.00 0.00 0.00 88 1007.3
20260506034302 78 54 3.5 11.3 0.00 0.00 0.00 88 1007.3
20260506034204 78 171 5.2 11.3 0.00 0.00 0.00 88 1007.4
20260506034102 78 155 6.1 11.3 0.00 0.00 0.00 88 1007.3
20260506034002 78 157 7.0 11.3 0.00 0.00 0.00 88 1007.3
20260506033902 78 137 4.3 11.3 0.00 0.00 0.00 88 1007.3
20260506033803 78 120 4.3 11.3 0.00 0.00 0.00 88 1007.3
20260506033702 78 65 4.3 11.3 0.00 0.00 0.00 88 1007.3
20260506033603 78 152 3.5 11.3 0.00 0.00 0.00 88 1007.2
20260506033503 78 151 5.2 11.3 0.00 0.00 0.00 88 1007.3
20260506033402 78 178 7.0 13.0 0.00 0.00 0.00 88 1007.2
20260506033301 78 121 6.1 13.0 0.00 0.00 0.00 88 1007.2
20260506033201 78 137 5.2 13.0 0.00 0.00 0.00 88 1007.2
20260506033103 78 183 6.1 13.0 0.00 0.00 0.00 88 1007.2
20260506033002 78 147 5.2 13.0 0.00 0.00 0.00 88 1007.1
20260506032859 78 186 4.3 13.0 0.00 0.00 0.00 88 1007.1
20260506032758 78 89 5.2 13.0 0.00 0.00 0.00 88 1007.1
20260506032656 78 155 5.2 13.0 0.00 0.00 0.00 88 1007.1
20260506032555 78 176 5.2 13.0 0.00 0.00 0.00 88 1007.0
20260506032453 78 168 5.2 13.0 0.00 0.00 0.00 88 1007.0
20260506032353 78 120 3.5 12.2 0.00 0.00 0.00 88 1007.0
20260506032250 78 124 3.5 12.2 0.00 0.00 0.00 88 1007.0
20260506032148 78 213 3.5 12.2 0.00 0.00 0.00 88 1007.0
20260506032047 78 120 4.3 12.2 0.00 0.00 0.00 88 1007.0
20260506031946 78 169 5.2 12.2 0.00 0.00 0.00 88 1007.0
20260506031845 78 83 5.2 12.2 0.00 0.00 0.00 88 1006.9
20260506031743 78 195 4.3 12.2 0.00 0.00 0.00 88 1006.9
20260506031642 78 243 5.2 10.4 0.00 0.00 0.00 88 1007.0
20260506031538 78 173 5.2 10.4 0.00 0.00 0.00 87 1006.9
20260506031438 78 178 5.2 14.8 0.00 0.00 0.00 87 1006.9
20260506031337 78 148 4.3 14.8 0.00 0.00 0.00 87 1006.9
20260506031236 78 172 5.2 14.8 0.00 0.00 0.00 87 1006.9
20260506031130 78 172 6.1 14.8 0.00 0.00 0.00 87 1006.8
20260506031032 78 189 5.2 14.8 0.00 0.00 0.00 87 1006.8
20260506030931 78 149 4.3 14.8 0.00 0.00 0.00 87 1006.9
20260506030832 78 148 4.3 14.8 0.00 0.00 0.00 87 1006.9
20260506030730 78 141 4.3 14.8 0.00 0.00 0.00 87 1006.9
20260506030631 78 142 5.2 14.8 0.00 0.00 0.00 87 1007.0
20260506030530 78 189 5.2 14.8 0.00 0.00 0.00 87 1007.0
20260506030429 78 149 5.2 13.9 0.00 0.00 0.00 87 1007.0
20260506030327 78 192 6.1 13.9 0.00 0.00 0.00 87 1007.0
20260506030226 78 172 5.2 13.9 0.00 0.00 0.00 87 1006.9
20260506030124 78 202 7.0 13.9 0.00 0.00 0.00 87 1006.9
20260506030023 78 197 7.0 13.9 0.00 0.00 0.00 87 1006.9
20260506025922 78 203 6.1 13.9 0.00 0.00 0.00 87 1006.9
20260506025821 78 152 7.0 13.9 0.00 0.00 0.00 87 1006.9
20260506025721 78 155 7.8 13.9 0.00 0.00 0.00 87 1006.9
20260506025623 78 189 6.1 13.0 0.00 0.00 0.00 87 1006.8
20260506025521 78 140 4.3 13.0 0.00 0.00 0.00 87 1006.9
20260506025421 78 154 4.3 13.0 0.00 0.00 0.00 87 1006.8
20260506025322 78 220 4.3 13.0 0.00 0.00 0.00 87 1006.9
20260506025222 78 182 2.6 13.0 0.00 0.00 0.00 87 1006.8
20260506025121 78 159 5.2 13.9 0.00 0.00 0.00 87 1006.9
20260506025021 78 123 6.1 13.9 0.00 0.00 0.00 87 1006.8
20260506024923 78 75 5.2 13.9 0.00 0.00 0.00 87 1006.7
20260506024822 78 195 5.2 13.9 0.00 0.00 0.00 87 1006.7
20260506024721 78 209 5.2 13.9 0.00 0.00 0.00 87 1006.6
20260506024622 78 195 5.2 13.9 0.00 0.00 0.00 87 1006.6
20260506024521 78 114 6.1 13.9 0.00 0.00 0.00 87 1006.6
20260506024423 78 166 5.2 13.9 0.00 0.00 0.00 87 1006.6
20260506024321 78 164 6.1 13.9 0.00 0.00 0.00 87 1006.5
20260506024222 78 154 6.1 13.9 0.00 0.00 0.00 87 1006.5
20260506024120 79 180 5.2 10.4 0.00 0.00 0.00 87 1006.5
20260506024021 79 89 4.3 10.4 0.00 0.00 0.00 87 1006.5
20260506023923 79 161 5.2 10.4 0.00 0.00 0.00 87 1006.5
20260506023821 79 196 5.2 10.4 0.00 0.00 0.00 87 1006.4
20260506023722 79 144 5.2 10.4 0.00 0.00 0.00 87 1006.4
20260506023622 79 154 5.2 11.3 0.00 0.00 0.00 87 1006.4
20260506023522 79 135 5.2 11.3 0.00 0.00 0.00 87 1006.5
20260506023421 79 197 5.2 11.3 0.00 0.00 0.00 86 1006.4
20260506023321 79 173 5.2 11.3 0.00 0.00 0.00 86 1006.4
20260506023220 79 193 5.2 11.3 0.00 0.00 0.00 86 1006.4
20260506023120 79 166 3.5 11.3 0.00 0.00 0.00 86 1006.4
20260506023021 79 221 3.5 11.3 0.00 0.00 0.00 86 1006.5
20260506022920 79 147 4.3 11.3 0.00 0.00 0.00 86 1006.4
20260506022820 79 147 6.1 11.3 0.00 0.00 0.00 86 1006.4
20260506022721 79 121 5.2 12.2 0.00 0.00 0.00 86 1006.4
20260506022621 79 123 3.5 12.2 0.00 0.00 0.00 86 1006.4
20260506022522 79 103 5.2 12.2 0.00 0.00 0.00 86 1006.4
20260506022421 79 202 5.2 12.2 0.00 0.00 0.00 86 1006.3
20260506022321 79 151 3.5 12.2 0.00 0.00 0.00 86 1006.3
20260506022220 79 166 3.5 13.0 0.00 0.00 0.00 86 1006.3
20260506022121 79 154 4.3 13.0 0.00 0.00 0.00 86 1006.3
20260506022021 79 109 5.2 13.0 0.00 0.00 0.00 86 1006.3
20260506021921 79 89 4.3 13.0 0.00 0.00 0.00 86 1006.3
20260506021822 79 199 2.6 13.0 0.00 0.00 0.00 86 1006.2
20260506021721 79 120 2.6 13.0 0.00 0.00 0.00 86 1006.2
20260506021620 79 120 3.5 13.0 0.00 0.00 0.00 86 1006.3
20260506021523 79 199 6.1 13.0 0.00 0.00 0.00 86 1006.2
20260506021420 79 190 7.0 13.0 0.00 0.00 0.00 86 1006.2
20260506021321 79 162 5.2 13.0 0.00 0.00 0.00 86 1006.2
20260506021221 79 272 3.5 12.2 0.00 0.00 0.00 86 1006.1
20260506021122 79 157 3.5 12.2 0.00 0.00 0.00 86 1006.2
20260506021020 79 118 3.5 12.2 0.00 0.00 0.00 86 1006.1
20260506020920 79 226 4.3 12.2 0.00 0.00 0.00 86 1006.2
20260506020821 79 182 5.2 12.2 0.00 0.00 0.00 86 1006.0
20260506020721 79 135 5.2 12.2 0.00 0.00 0.00 86 1006.0
20260506020620 79 158 7.0 12.2 0.00 0.00 0.00 86 1006.0
20260506020520 79 158 7.0 13.0 0.00 0.00 0.00 86 1006.0
20260506020421 79 195 5.2 13.0 0.00 0.00 0.00 86 1006.1
20260506020321 79 161 4.3 13.0 0.00 0.00 0.00 86 1006.0
20260506020220 79 131 3.5 13.0 0.00 0.00 0.00 86 1006.1
20260506020121 79 261 3.5 13.0 0.00 0.00 0.00 86 1006.1
20260506020020 79 235 4.3 13.0 0.00 0.00 0.00 86 1006.1
20260506015920 79 168 5.2 13.0 0.00 0.00 0.00 86 1006.0
20260506015821 79 200 7.0 13.0 0.00 0.00 0.00 86 1006.0
20260506015722 79 186 7.0 13.0 0.00 0.00 0.00 86 1006.1
20260506015620 79 164 6.1 13.0 0.00 0.00 0.00 85 1006.0
20260506015519 79 226 5.2 13.0 0.00 0.00 0.00 86 1006.0
20260506015422 79 113 4.3 13.0 0.00 0.00 0.00 86 1005.9
20260506015319 79 171 5.2 13.0 0.00 0.00 0.00 85 1005.9
20260506015220 79 148 4.3 13.0 0.00 0.00 0.00 85 1005.9
20260506015120 79 135 3.5 13.0 0.00 0.00 0.00 85 1005.9
20260506015020 79 155 4.3 13.0 0.00 0.00 0.00 85 1005.9
20260506014920 79 190 6.1 13.0 0.00 0.00 0.00 85 1005.9
20260506014819 79 161 5.2 13.0 0.00 0.00 0.00 85 1005.8
20260506014720 79 128 3.5 10.4 0.00 0.00 0.00 85 1005.8
20260506014619 79 157 3.5 10.4 0.00 0.00 0.00 85 1005.9
20260506014520 79 147 3.5 10.4 0.00 0.00 0.00 85 1005.8
20260506014420 79 147 3.5 10.4 0.00 0.00 0.00 85 1005.8
20260506014321 79 171 2.6 10.4 0.00 0.00 0.00 85 1005.8
20260506014219 79 154 3.5 10.4 0.00 0.00 0.00 85 1005.8
20260506014120 79 147 4.3 10.4 0.00 0.00 0.00 85 1005.8
20260506014021 79 192 3.5 10.4 0.00 0.00 0.00 85 1005.8
20260506013920 79 82 2.6 9.6 0.00 0.00 0.00 85 1005.8
20260506013820 79 192 2.6 9.6 0.00 0.00 0.00 85 1005.7
20260506013719 79 155 3.5 9.6 0.00 0.00 0.00 85 1005.7
20260506013619 79 285 2.6 9.6 0.00 0.00 0.00 85 1005.7
20260506013519 79 166 2.6 9.6 0.00 0.00 0.00 85 1005.7
20260506013419 79 141 4.3 9.6 0.00 0.00 0.00 85 1005.7
20260506013320 79 185 5.2 9.6 0.00 0.00 0.00 85 1005.7
20260506013219 79 152 4.3 9.6 0.00 0.00 0.00 85 1005.7
20260506013120 79 154 4.3 9.6 0.00 0.00 0.00 85 1005.6
20260506013020 79 202 4.3 9.6 0.00 0.00 0.00 85 1005.5
20260506012920 79 207 5.2 9.6 0.00 0.00 0.00 84 1005.5
20260506012819 79 159 3.5 9.6 0.00 0.00 0.00 84 1005.6
20260506012720 79 196 2.6 9.6 0.00 0.00 0.00 84 1005.5
20260506012620 79 128 3.5 9.6 0.00 0.00 0.00 84 1005.5
20260506012519 79 131 4.3 9.6 0.00 0.00 0.00 84 1005.5
20260506012420 79 113 5.2 9.6 0.00 0.00 0.00 84 1005.5
20260506012319 79 38 5.2 10.4 0.00 0.00 0.00 84 1005.5
20260506012220 80 176 3.5 10.4 0.00 0.00 0.00 84 1005.6
20260506012119 79 169 3.5 10.4 0.00 0.00 0.00 84 1005.5
20260506012019 79 140 3.5 10.4 0.00 0.00 0.00 84 1005.5
20260506011919 79 138 5.2 10.4 0.00 0.00 0.00 84 1005.5
20260506011820 80 178 5.2 10.4 0.00 0.00 0.00 84 1005.5
20260506011718 80 148 4.3 10.4 0.00 0.00 0.00 84 1005.4
20260506011620 80 90 4.3 10.4 0.00 0.00 0.00 84 1005.4
20260506011519 80 152 5.2 10.4 0.00 0.00 0.00 84 1005.3
20260506011419 80 169 5.2 10.4 0.00 0.00 0.00 84 1005.3
20260506011320 80 185 5.2 9.6 0.00 0.00 0.00 84 1005.3
20260506011221 80 159 5.2 9.6 0.00 0.00 0.00 84 1005.3
20260506011119 80 166 5.2 9.6 0.00 0.00 0.00 83 1005.4
20260506011020 80 109 5.2 10.4 0.00 0.00 0.00 83 1005.3
20260506010919 80 180 2.6 10.4 0.00 0.00 0.00 83 1005.3
20260506010818 80 171 3.5 10.4 0.00 0.00 0.00 83 1005.3
20260506010719 80 173 4.3 10.4 0.00 0.00 0.00 83 1005.3
20260506010619 80 206 3.5 10.4 0.00 0.00 0.00 83 1005.3
20260506010520 80 189 3.5 10.4 0.00 0.00 0.00 83 1005.3
20260506010419 80 138 3.5 10.4 0.00 0.00 0.00 83 1005.3
20260506010319 80 120 4.3 10.4 0.00 0.00 0.00 83 1005.3
20260506010220 80 144 3.5 10.4 0.00 0.00 0.00 83 1005.2
20260506010119 80 192 3.5 10.4 0.00 0.00 0.00 83 1005.3
20260506010021 80 159 4.3 11.3 0.00 0.00 0.00 83 1005.3
20260506005919 80 155 4.3 11.3 0.00 0.00 0.00 83 1005.2
20260506005820 80 212 3.5 11.3 0.00 0.00 0.00 83 1005.2
20260506005718 80 0 1.7 11.3 0.00 0.00 0.00 83 1005.2
20260506005619 80 137 2.6 11.3 0.00 0.00 0.00 83 1005.2
20260506005519 80 107 4.3 11.3 0.00 0.00 0.00 83 1005.2
20260506005418 80 106 6.1 11.3 0.00 0.00 0.00 83 1005.2
20260506005318 80 113 6.1 11.3 0.00 0.00 0.00 82 1005.2
20260506005219 80 96 6.1 11.3 0.00 0.00 0.00 82 1005.1
20260506005119 80 87 6.1 11.3 0.00 0.00 0.00 82 1005.2
20260506005018 80 106 3.5 10.4 0.00 0.00 0.00 82 1005.2
20260506004918 80 130 3.5 10.4 0.00 0.00 0.00 82 1005.2
20260506004820 80 106 4.3 10.4 0.00 0.00 0.00 82 1005.1
20260506004719 80 142 4.3 10.4 0.00 0.00 0.00 82 1005.1
20260506004618 80 86 4.3 10.4 0.00 0.00 0.00 82 1005.1
20260506004519 80 35 3.5 10.4 0.00 0.00 0.00 82 1005.2
20260506004419 80 71 4.3 13.0 0.00 0.00 0.00 82 1005.2
20260506004318 80 111 3.5 13.0 0.00 0.00 0.00 82 1005.2
20260506004218 80 169 3.5 13.0 0.00 0.00 0.00 82 1005.2
20260506004119 80 94 5.2 13.0 0.00 0.00 0.00 82 1005.2
20260506004018 80 125 4.3 13.0 0.00 0.00 0.00 82 1005.2
20260506003918 80 134 5.2 13.0 0.00 0.00 0.00 82 1005.2
20260506003819 80 130 5.2 13.0 0.00 0.00 0.00 82 1005.2
20260506003719 80 142 5.2 13.0 0.00 0.00 0.00 82 1005.2
20260506003618 80 121 6.1 13.0 0.00 0.00 0.00 82 1005.2
20260506003518 80 102 6.1 13.0 0.00 0.00 0.00 82 1005.1
20260506003419 80 96 4.3 9.6 0.00 0.00 0.00 82 1005.2
20260506003318 80 131 3.5 9.6 0.00 0.00 0.00 82 1005.2
20260506003217 80 90 3.5 9.6 0.00 0.00 0.00 82 1005.1
20260506003118 80 90 4.3 9.6 0.00 0.00 0.00 82 1005.2
20260506003017 80 120 4.3 9.6 0.00 0.00 0.00 82 1005.1
20260506002917 80 90 4.3 10.4 0.00 0.00 0.00 81 1005.0
20260506002818 81 100 6.1 10.4 0.00 0.00 0.00 81 1005.0
20260506002720 81 103 5.2 10.4 0.00 0.00 0.00 81 1005.0
20260506002617 81 82 3.5 10.4 0.00 0.00 0.00 81 1005.0
20260506002517 81 100 2.6 10.4 0.00 0.00 0.00 81 1005.0
20260506002419 81 111 4.3 10.4 0.00 0.00 0.00 81 1004.9
20260506002318 81 78 4.3 10.4 0.00 0.00 0.00 81 1004.9
20260506002218 81 93 4.3 10.4 0.00 0.00 0.00 81 1004.9
20260506002118 81 79 4.3 10.4 0.00 0.00 0.00 81 1004.9
20260506002019 81 158 4.3 10.4 0.00 0.00 0.00 81 1004.9
20260506001918 81 117 5.2 10.4 0.00 0.00 0.00 81 1004.9
20260506001818 81 69 5.2 10.4 0.00 0.00 0.00 81 1004.9
20260506001719 81 116 3.5 17.4 0.00 0.00 0.00 81 1004.8
20260506001618 81 127 2.6 17.4 0.00 0.00 0.00 81 1004.8
20260506001518 81 0 3.5 17.4 0.00 0.00 0.00 81 1004.9
20260506001417 81 106 4.3 17.4 0.00 0.00 0.00 80 1004.9
20260506001319 81 104 6.1 17.4 0.00 0.00 0.00 80 1004.9
20260506001217 81 99 5.2 17.4 0.00 0.00 0.00 80 1004.9
20260506001117 81 102 3.5 17.4 0.00 0.00 0.00 80 1004.9
20260506001018 81 97 4.3 17.4 0.00 0.00 0.00 80 1004.9
20260506000917 81 103 7.0 17.4 0.00 0.00 0.00 80 1004.9
20260506000819 81 123 7.8 17.4 0.00 0.00 0.00 80 1004.9
20260506000714 81 97 5.2 13.9 0.00 0.00 0.00 80 1005.0
20260506000609 81 127 3.5 13.0 0.00 0.00 0.00 80 1005.0
20260506000509 81 87 5.2 13.0 0.00 0.00 0.00 80 1005.0
20260506000409 81 102 7.0 13.0 0.00 0.00 0.00 80 1004.9
20260506000309 81 65 6.1 13.0 0.00 0.00 0.00 80 1005.0
20260506000206 81 99 6.1 11.3 0.00 0.00 0.00 80 1005.0
20260506000104 81 141 5.2 13.0 0.00 0.00 0.00 80 1005.0
20260506000003 81 55 5.2 13.0 0.00 0.00 0.00 80 1004.9
20260505235902 81 128 6.1 13.0 0.00 0.00 0.00 80 1004.9
20260505235802 81 102 4.3 13.0 0.00 0.00 0.00 80 1005.0
20260505235702 81 124 4.3 13.0 0.00 0.00 0.00 80 1004.9
20260505235603 81 118 5.2 13.0 0.00 0.00 0.00 80 1004.9
20260505235503 81 93 5.2 13.9 0.00 0.00 0.00 80 1004.8
20260505235403 81 109 5.2 13.9 0.00 0.00 0.00 80 1004.8
20260505235305 81 94 5.2 13.9 0.00 0.00 0.00 80 1004.9
20260505235204 81 87 5.2 13.9 0.00 0.00 0.00 80 1004.8
20260505235102 81 145 5.2 13.9 0.00 0.00 0.00 79 1004.8
20260505235003 81 71 5.2 13.9 0.00 0.00 0.00 79 1004.7
20260505234902 81 111 5.2 13.9 0.00 0.00 0.00 79 1004.8
20260505234802 81 0 6.1 13.9 0.00 0.00 0.00 79 1004.8
20260505234702 81 80 7.0 13.9 0.00 0.00 0.00 79 1004.8
20260505234604 82 116 7.0 13.9 0.00 0.00 0.00 79 1004.8
20260505234504 82 118 5.2 12.2 0.00 0.00 0.00 79 1004.8
20260505234402 82 102 5.2 11.3 0.00 0.00 0.00 79 1004.8
20260505234303 82 76 6.1 11.3 0.00 0.00 0.00 79 1004.8
20260505234203 82 78 7.0 11.3 0.00 0.00 0.00 79 1004.8
20260505234104 82 110 5.2 11.3 0.00 0.00 0.00 79 1004.9
20260505234002 82 120 3.5 11.3 0.00 0.00 0.00 80 1004.9
20260505233903 82 86 3.5 11.3 0.00 0.00 0.00 80 1004.9
20260505233802 82 0 5.2 12.2 0.00 0.00 0.00 80 1004.9
20260505233702 82 113 6.1 12.2 0.00 0.00 0.00 79 1004.9
20260505233604 82 111 6.1 12.2 0.00 0.00 0.00 79 1005.0
20260505233504 82 90 7.8 12.2 0.00 0.00 0.00 79 1004.9
20260505233402 82 137 7.0 12.2 0.00 0.00 0.00 79 1004.9
20260505233302 82 96 5.2 12.2 0.00 0.00 0.00 80 1004.9
20260505233204 82 114 5.2 12.2 0.00 0.00 0.00 79 1004.9
20260505233102 82 93 4.3 12.2 0.00 0.00 0.00 80 1004.9
20260505233002 82 111 3.5 12.2 0.00 0.00 0.00 80 1004.9
20260505232903 82 80 4.3 13.0 0.00 0.00 0.00 80 1004.9
20260505232802 82 68 5.2 13.0 0.00 0.00 0.00 80 1004.9
20260505232702 82 80 4.3 16.5 0.00 0.00 0.00 80 1005.0
20260505232602 82 123 3.5 16.5 0.00 0.00 0.00 80 1004.9
20260505232504 82 93 4.3 16.5 0.00 0.00 0.00 80 1004.8
20260505232402 82 71 4.3 16.5 0.00 0.00 0.00 79 1004.9
20260505232305 82 109 3.5 16.5 0.00 0.00 0.00 79 1004.9
20260505232203 82 93 4.3 16.5 0.00 0.00 0.00 79 1004.9
20260505232102 82 117 6.1 16.5 0.00 0.00 0.00 79 1004.9
20260505232002 82 121 7.0 16.5 0.00 0.00 0.00 79 1004.9
20260505231903 82 118 8.7 16.5 0.00 0.00 0.00 79 1004.9
20260505231802 82 120 7.8 16.5 0.00 0.00 0.00 79 1005.0
20260505231702 82 128 5.2 12.2 0.00 0.00 0.00 79 1005.0
20260505231603 82 107 5.2 12.2 0.00 0.00 0.00 79 1005.0
20260505231504 82 63 5.2 12.2 0.00 0.00 0.00 79 1005.0
20260505231402 82 87 5.2 12.2 0.00 0.00 0.00 79 1005.0
20260505231304 82 107 6.1 12.2 0.00 0.00 0.00 79 1005.0
20260505231203 82 134 5.2 11.3 0.00 0.00 0.00 79 1005.0
20260505231102 82 110 4.3 11.3 0.00 0.00 0.00 79 1004.9
20260505231002 82 85 3.5 11.3 0.00 0.00 0.00 79 1005.0
20260505230902 82 99 3.5 11.3 0.00 0.00 0.00 79 1005.0
20260505230803 82 79 5.2 11.3 0.00 0.00 0.00 79 1005.0
20260505230702 82 85 5.2 11.3 0.00 0.00 0.00 79 1005.0
20260505230602 82 138 4.3 11.3 0.00 0.00 0.00 79 1005.0
20260505230504 82 73 4.3 12.2 0.00 0.00 0.00 79 1004.9
20260505230403 82 48 5.2 12.2 0.00 0.00 0.00 79 1004.9
20260505230303 82 104 5.2 12.2 0.00 0.00 0.00 79 1004.9
20260505230203 82 124 5.2 12.2 0.00 0.00 0.00 79 1004.9
20260505230003 82 0 5.2 13.0 0.00 0.00 0.00 79 1005.0
20260505225902 82 94 5.2 13.0 0.00 0.00 0.00 79 1004.9
20260505225803 82 87 5.2 13.0 0.00 0.00 0.00 79 1004.9
20260505225703 82 80 7.0 13.0 0.00 0.00 0.00 79 1004.9
20260505225602 82 94 7.8 13.0 0.00 0.00 0.00 79 1004.9
20260505225504 82 130 7.0 13.0 0.00 0.00 0.00 79 1004.9
20260505225403 82 123 6.1 13.0 0.00 0.00 0.00 79 1004.8
20260505225305 82 120 7.0 13.0 0.00 0.00 0.00 79 1004.8
20260505225202 82 73 7.8 13.0 0.00 0.00 0.00 79 1004.8
20260505225103 82 125 6.1 13.0 0.00 0.00 0.00 79 1004.8
20260505225002 82 121 6.1 13.0 0.00 0.00 0.00 79 1004.7
20260505224902 83 73 7.8 13.0 0.00 0.00 0.00 78 1004.7
20260505224804 83 210 7.8 13.0 0.00 0.00 0.00 78 1004.7
20260505224702 83 144 7.0 12.2 0.00 0.00 0.00 78 1004.7
20260505224602 83 157 6.1 11.3 0.00 0.00 0.00 78 1004.7
20260505224504 83 147 5.2 11.3 0.00 0.00 0.00 78 1004.7
20260505224402 83 164 6.1 11.3 0.00 0.00 0.00 78 1004.8
20260505224302 83 121 5.2 11.3 0.00 0.00 0.00 77 1004.9
20260505224159 83 154 3.5 10.4 0.00 0.00 0.00 77 1004.8
20260505224058 83 138 3.5 10.4 0.00 0.00 0.00 77 1004.9
20260505223956 83 157 4.3 10.4 0.00 0.00 0.00 77 1004.9
20260505223854 83 142 5.2 10.4 0.00 0.00 0.00 77 1004.9
20260505223753 83 109 4.3 10.4 0.00 0.00 0.00 77 1004.9
20260505223652 83 133 2.6 11.3 0.00 0.00 0.00 77 1004.9
20260505223550 83 180 4.3 11.3 0.00 0.00 0.00 77 1004.8
20260505223448 83 214 4.3 11.3 0.00 0.00 0.00 77 1004.9
20260505223348 83 164 5.2 11.3 0.00 0.00 0.00 77 1004.9
20260505223246 83 141 7.0 11.3 0.00 0.00 0.00 77 1004.8
20260505223145 83 196 7.0 11.3 0.00 0.00 0.00 77 1004.9
20260505223044 83 188 5.2 13.0 0.00 0.00 0.00 77 1005.0
20260505222942 83 193 5.2 13.0 0.00 0.00 0.00 78 1004.9
20260505222839 83 168 6.1 13.0 0.00 0.00 0.00 77 1004.9
20260505222739 83 164 5.2 13.0 0.00 0.00 0.00 78 1004.9
20260505222638 83 192 6.1 13.0 0.00 0.00 0.00 77 1004.9
20260505222536 83 158 6.1 13.0 0.00 0.00 0.00 77 1004.9
20260505222430 83 190 5.2 13.0 0.00 0.00 0.00 77 1004.9
20260505222330 83 25 5.2 13.0 0.00 0.00 0.00 77 1005.0
20260505222231 83 140 6.1 13.9 0.00 0.00 0.00 77 1005.0
20260505222131 83 214 6.1 13.9 0.00 0.00 0.00 77 1005.0
20260505222031 83 244 4.3 13.9 0.00 0.00 0.00 77 1005.0
20260505221932 83 231 4.3 13.9 0.00 0.00 0.00 77 1004.9
20260505221831 83 207 5.2 13.9 0.00 0.00 0.00 77 1005.0
20260505221731 83 185 6.1 13.9 0.00 0.00 0.00 76 1005.0
20260505221632 83 106 6.1 13.9 0.00 0.00 0.00 76 1004.9
20260505221531 83 189 5.2 13.9 0.00 0.00 0.00 76 1004.9
20260505221431 83 183 6.1 13.9 0.00 0.00 0.00 76 1005.0
20260505221332 83 165 7.8 13.9 0.00 0.00 0.00 76 1005.0
20260505221232 83 196 7.0 13.9 0.00 0.00 0.00 76 1005.0
20260505221130 83 161 7.8 13.9 0.00 0.00 0.00 76 1005.0
20260505221028 83 172 7.8 13.9 0.00 0.00 0.00 77 1005.0
20260505220927 83 182 5.2 13.0 0.00 0.00 0.00 77 1005.1
20260505220825 83 200 5.2 14.8 0.00 0.00 0.00 77 1005.0
20260505220723 83 155 5.2 14.8 0.00 0.00 0.00 77 1005.0
20260505220623 83 224 6.1 14.8 0.00 0.00 0.00 77 1005.0
20260505220520 83 109 7.0 14.8 0.00 0.00 0.00 77 1004.9
20260505220419 84 189 7.0 14.8 0.00 0.00 0.00 76 1005.0
20260505220317 84 165 7.0 14.8 0.00 0.00 0.00 76 1005.0
20260505220217 84 180 6.1 14.8 0.00 0.00 0.00 76 1005.0
20260505220116 84 157 7.8 14.8 0.00 0.00 0.00 76 1005.1
20260505220015 84 207 7.8 14.8 0.00 0.00 0.00 76 1005.1
20260505215915 84 173 5.2 14.8 0.00 0.00 0.00 77 1005.2
20260505215815 84 175 6.1 11.3 0.00 0.00 0.00 76 1005.2
20260505215715 84 190 6.1 11.3 0.00 0.00 0.00 76 1005.0
20260505215617 84 185 5.2 11.3 0.00 0.00 0.00 77 1005.1
20260505215514 84 210 5.2 11.3 0.00 0.00 0.00 77 1005.1
20260505215416 84 192 5.2 11.3 0.00 0.00 0.00 77 1005.1
20260505215315 84 141 6.1 13.0 0.00 0.00 0.00 77 1005.2
20260505215214 84 226 6.1 13.0 0.00 0.00 0.00 76 1005.1
20260505215116 84 274 6.1 15.6 0.00 0.00 0.00 77 1005.1
20260505215014 84 212 7.0 15.6 0.00 0.00 0.00 77 1005.1
20260505214915 84 202 5.2 15.6 0.00 0.00 0.00 77 1005.2
20260505214815 84 202 3.5 15.6 0.00 0.00 0.00 77 1005.2
20260505214715 84 214 6.1 15.6 0.00 0.00 0.00 77 1005.2
20260505214614 84 207 7.8 16.5 0.00 0.00 0.00 77 1005.2
20260505214514 84 203 7.8 16.5 0.00 0.00 0.00 77 1005.2
20260505214416 84 189 7.8 16.5 0.00 0.00 0.00 76 1005.2
20260505214313 84 197 7.8 16.5 0.00 0.00 0.00 77 1005.3
20260505214212 84 204 6.1 16.5 0.00 0.00 0.00 76 1005.2
20260505214112 84 204 6.1 16.5 0.00 0.00 0.00 77 1005.3
20260505214005 84 180 6.1 16.5 0.00 0.00 0.00 76 1005.3
20260505213903 84 235 7.8 16.5 0.00 0.00 0.00 76 1005.3
20260505213802 84 240 9.6 16.5 0.00 0.00 0.00 76 1005.3
20260505213701 85 202 8.7 14.8 0.00 0.00 0.00 76 1005.3
20260505213603 85 161 5.2 13.0 0.00 0.00 0.00 75 1005.4
20260505213502 85 206 4.3 12.2 0.00 0.00 0.00 75 1005.3
20260505213402 85 173 5.2 12.2 0.00 0.00 0.00 75 1005.3
20260505213305 85 237 5.2 12.2 0.00 0.00 0.00 75 1005.3
20260505213203 85 245 5.2 14.8 0.00 0.00 0.00 75 1005.3
20260505213102 85 224 4.3 14.8 0.00 0.00 0.00 75 1005.3
20260505213002 85 179 3.5 14.8 0.00 0.00 0.00 75 1005.2
20260505212904 85 175 4.3 14.8 0.00 0.00 0.00 76 1005.3
20260505212802 85 196 5.2 14.8 0.00 0.00 0.00 75 1005.3
20260505212703 85 203 6.1 14.8 0.00 0.00 0.00 76 1005.3
20260505212603 84 203 5.2 14.8 0.00 0.00 0.00 75 1005.3
20260505212502 84 221 6.1 14.8 0.00 0.00 0.00 75 1005.4
20260505212402 84 178 8.7 14.8 0.00 0.00 0.00 75 1005.4
20260505212306 84 200 7.8 14.8 0.00 0.00 0.00 76 1005.4
20260505212202 84 176 7.8 13.9 0.00 0.00 0.00 76 1005.5
20260505212102 84 197 8.7 13.9 0.00 0.00 0.00 76 1005.5
20260505212002 84 195 7.8 13.9 0.00 0.00 0.00 76 1005.5
20260505211905 84 144 7.8 13.9 0.00 0.00 0.00 76 1005.6
20260505211802 84 183 7.8 13.9 0.00 0.00 0.00 76 1005.6
20260505211701 84 217 7.8 13.9 0.00 0.00 0.00 76 1005.5
20260505211604 84 213 8.7 13.9 0.00 0.00 0.00 76 1005.5
20260505211503 84 200 7.8 13.9 0.00 0.00 0.00 76 1005.5
20260505211402 84 164 7.0 13.9 0.00 0.00 0.00 76 1005.4
20260505211302 84 193 7.0 15.6 0.00 0.00 0.00 76 1005.6
20260505211203 84 166 7.0 15.6 0.00 0.00 0.00 77 1005.6
20260505211104 84 169 7.0 15.6 0.00 0.00 0.00 77 1005.6
20260505211004 84 166 6.1 15.6 0.00 0.00 0.00 77 1005.6
20260505210904 84 243 5.2 15.6 0.00 0.00 0.00 78 1005.7
20260505210803 83 149 7.8 15.6 0.00 0.00 0.00 77 1005.6
20260505210703 83 210 7.8 15.6 0.00 0.00 0.00 77 1005.6
20260505210602 83 195 7.0 16.5 0.00 0.00 0.00 77 1005.7
20260505210504 83 219 8.7 16.5 0.00 0.00 0.00 77 1005.7
20260505210403 83 235 7.8 16.5 0.00 0.00 0.00 77 1005.7
20260505210302 83 237 6.1 16.5 0.00 0.00 0.00 78 1005.7
20260505210203 83 204 5.2 16.5 0.00 0.00 0.00 78 1005.8
20260505210003 83 196 5.2 16.5 0.00 0.00 0.00 77 1005.8
20260505205839 83 131 7.8 16.5 0.00 0.00 0.00 77 1005.8
20260505205737 83 227 8.7 16.5 0.00 0.00 0.00 77 1005.8
20260505205635 84 168 7.8 16.5 0.00 0.00 0.00 77 1005.9
20260505205534 84 169 7.0 12.2 0.00 0.00 0.00 77 1005.8
20260505205431 84 196 5.2 13.0 0.00 0.00 0.00 77 1005.9
20260505205330 84 142 4.3 13.0 0.00 0.00 0.00 76 1005.8
20260505205231 84 158 5.2 13.0 0.00 0.00 0.00 76 1005.9
20260505205132 84 120 5.2 13.0 0.00 0.00 0.00 76 1005.8
20260505205031 84 172 5.2 13.0 0.00 0.00 0.00 76 1005.9
20260505204932 84 158 4.3 13.0 0.00 0.00 0.00 76 1005.9
20260505204832 84 199 4.3 13.0 0.00 0.00 0.00 76 1005.8
20260505204732 84 171 5.2 13.0 0.00 0.00 0.00 76 1005.9
20260505204630 84 204 7.0 13.0 0.00 0.00 0.00 75 1006.0
20260505204529 85 134 5.2 13.0 0.00 0.00 0.00 76 1006.0
20260505204427 85 217 4.3 13.0 0.00 0.00 0.00 75 1005.9
20260505204327 85 169 7.0 13.0 0.00 0.00 0.00 75 1005.9
20260505204224 85 220 9.6 16.5 0.00 0.00 0.00 74 1005.9
20260505204122 85 213 7.8 16.5 0.00 0.00 0.00 74 1005.9
20260505204019 85 290 7.0 16.5 0.00 0.00 0.00 74 1005.9
20260505203914 85 289 6.1 16.5 0.00 0.00 0.00 74 1005.7
20260505203814 85 213 6.1 16.5 0.00 0.00 0.00 74 1005.8
20260505203714 85 155 9.6 16.5 0.00 0.00 0.00 74 1005.8
20260505203613 85 155 9.6 16.5 0.00 0.00 0.00 74 1005.8
20260505203514 85 155 9.6 16.5 0.00 0.00 0.00 74 1005.8
20260505203413 85 179 10.4 17.4 0.00 0.00 0.00 74 1005.9
20260505203312 85 203 9.6 17.4 0.00 0.00 0.00 74 1005.9
20260505203212 85 178 8.7 17.4 0.00 0.00 0.00 74 1006.0
20260505203113 85 182 8.7 17.4 0.00 0.00 0.00 73 1006.0
20260505203013 85 190 7.8 17.4 0.00 0.00 0.00 73 1006.0
20260505202913 85 204 7.8 17.4 0.00 0.00 0.00 73 1006.0
20260505202814 85 178 7.0 17.4 0.00 0.00 0.00 74 1006.0
20260505202714 85 221 7.8 17.4 0.00 0.00 0.00 74 1006.0
20260505202614 85 217 9.6 17.4 0.00 0.00 0.00 74 1006.0
20260505202513 85 209 10.4 17.4 0.00 0.00 0.00 73 1006.1
20260505202412 85 145 7.8 14.8 0.00 0.00 0.00 73 1006.1
20260505202313 85 171 6.1 14.8 0.00 0.00 0.00 73 1006.1
20260505202212 85 182 7.0 14.8 0.00 0.00 0.00 73 1006.1
20260505202113 86 124 8.7 14.8 0.00 0.00 0.00 73 1006.1
20260505202012 85 186 9.6 14.8 0.00 0.00 0.00 73 1006.1
20260505201912 85 241 7.8 14.8 0.00 0.00 0.00 74 1006.1
20260505201812 85 204 6.1 11.3 0.00 0.00 0.00 75 1006.1
20260505201712 85 186 5.2 12.2 0.00 0.00 0.00 74 1006.2
20260505201612 85 204 5.2 12.2 0.00 0.00 0.00 75 1006.3
20260505201512 85 162 5.2 12.2 0.00 0.00 0.00 75 1006.2
20260505201413 85 217 7.0 12.2 0.00 0.00 0.00 75 1006.2
20260505201312 85 252 7.0 12.2 0.00 0.00 0.00 75 1006.3
20260505201213 85 250 6.1 12.2 0.00 0.00 0.00 75 1006.2
20260505201113 85 179 6.1 13.9 0.00 0.00 0.00 75 1006.3
20260505201012 85 193 7.0 13.9 0.00 0.00 0.00 75 1006.3
20260505200914 85 247 7.8 16.5 0.00 0.00 0.00 75 1006.3
20260505200811 85 206 7.8 16.5 0.00 0.00 0.00 75 1006.4
20260505200713 85 217 7.8 16.5 0.00 0.00 0.00 75 1006.3
20260505200612 85 200 8.7 16.5 0.00 0.00 0.00 75 1006.4
20260505200512 85 195 7.0 16.5 0.00 0.00 0.00 75 1006.4
20260505200413 85 192 5.2 16.5 0.00 0.00 0.00 75 1006.4
20260505200313 85 202 6.1 16.5 0.00 0.00 0.00 75 1006.5
20260505200212 85 193 7.8 16.5 0.00 0.00 0.00 74 1006.4
20260505200113 85 234 8.7 16.5 0.00 0.00 0.00 74 1006.5
20260505200014 85 224 9.6 16.5 0.00 0.00 0.00 74 1006.5
20260505195913 85 250 9.6 15.6 0.00 0.00 0.00 73 1006.4
20260505195811 85 206 8.7 15.6 0.00 0.00 0.00 74 1006.4
20260505195712 85 247 9.6 15.6 0.00 0.00 0.00 74 1006.4
20260505195611 85 254 8.7 13.9 0.00 0.00 0.00 75 1006.4
20260505195511 85 190 7.0 13.9 0.00 0.00 0.00 75 1006.4
20260505195411 85 203 7.8 13.9 0.00 0.00 0.00 75 1006.5
20260505195313 85 195 9.6 13.9 0.00 0.00 0.00 75 1006.5
20260505195212 85 199 10.4 13.9 0.00 0.00 0.00 74 1006.5
20260505195112 85 185 8.7 13.9 0.00 0.00 0.00 74 1006.6
20260505195012 85 213 7.8 13.9 0.00 0.00 0.00 75 1006.6
20260505194912 85 240 7.0 13.9 0.00 0.00 0.00 75 1006.6
20260505194811 85 157 7.0 14.8 0.00 0.00 0.00 75 1006.6
20260505194712 85 161 7.8 14.8 0.00 0.00 0.00 75 1006.6
20260505194612 85 175 9.6 14.8 0.00 0.00 0.00 74 1006.6
20260505194511 85 224 8.7 14.8 0.00 0.00 0.00 74 1006.6
20260505194411 85 228 7.0 14.8 0.00 0.00 0.00 75 1006.6
20260505194313 85 185 7.8 14.8 0.00 0.00 0.00 75 1006.6
20260505194212 85 216 7.0 14.8 0.00 0.00 0.00 75 1006.7
20260505194112 85 213 5.2 14.8 0.00 0.00 0.00 76 1006.6
20260505194012 84 251 6.1 14.8 0.00 0.00 0.00 76 1006.7
20260505193912 84 217 7.0 14.8 0.00 0.00 0.00 77 1006.7
20260505193811 84 183 8.7 13.9 0.00 0.00 0.00 77 1006.7
20260505193711 83 175 9.6 13.9 0.00 0.00 0.00 77 1006.7
20260505193612 83 243 7.8 13.0 0.00 0.00 0.00 77 1006.8
20260505193512 83 186 6.1 14.8 0.00 0.00 0.00 78 1006.8
20260505193411 83 200 7.8 14.8 0.00 0.00 0.00 77 1006.7
20260505193311 83 183 7.8 14.8 0.00 0.00 0.00 77 1006.8
20260505193212 83 133 7.0 14.8 0.00 0.00 0.00 78 1006.8
20260505193111 83 223 7.8 14.8 0.00 0.00 0.00 78 1006.9
20260505193012 83 216 7.0 14.8 0.00 0.00 0.00 77 1006.8
20260505192913 83 183 7.8 14.8 0.00 0.00 0.00 77 1006.8
20260505192811 83 195 7.8 14.8 0.00 0.00 0.00 77 1006.8
20260505192711 83 193 6.1 14.8 0.00 0.00 0.00 77 1006.8
20260505192611 83 148 6.1 14.8 0.00 0.00 0.00 77 1006.8
20260505192513 83 202 6.1 12.2 0.00 0.00 0.00 77 1006.8
20260505192411 83 186 5.2 12.2 0.00 0.00 0.00 77 1006.9
20260505192311 83 209 4.3 12.2 0.00 0.00 0.00 78 1006.9
20260505192211 83 214 4.3 12.2 0.00 0.00 0.00 77 1006.8
20260505192110 83 248 4.3 14.8 0.00 0.00 0.00 77 1006.9
20260505192010 83 240 5.2 14.8 0.00 0.00 0.00 77 1006.8
20260505191911 83 221 7.8 14.8 0.00 0.00 0.00 76 1006.9
20260505191812 83 223 7.8 14.8 0.00 0.00 0.00 76 1006.9
20260505191710 84 206 5.2 14.8 0.00 0.00 0.00 76 1007.0
20260505191611 84 179 4.3 14.8 0.00 0.00 0.00 77 1007.0
20260505191513 84 199 4.3 14.8 0.00 0.00 0.00 78 1007.0
20260505191410 83 158 7.0 14.8 0.00 0.00 0.00 78 1007.0
20260505191310 83 190 8.7 14.8 0.00 0.00 0.00 77 1006.9
20260505191210 83 210 7.8 14.8 0.00 0.00 0.00 77 1007.0
20260505191111 83 159 7.8 12.2 0.00 0.00 0.00 77 1006.9
20260505191010 83 241 8.7 12.2 0.00 0.00 0.00 77 1006.9
20260505190911 83 209 7.8 12.2 0.00 0.00 0.00 77 1007.0
20260505190812 83 197 7.0 12.2 0.00 0.00 0.00 77 1007.0
20260505190711 83 152 6.1 12.2 0.00 0.00 0.00 77 1007.0
20260505190610 83 196 5.2 10.4 0.00 0.00 0.00 78 1007.0
20260505190511 83 106 6.1 10.4 0.00 0.00 0.00 78 1006.9
20260505190412 83 204 7.0 11.3 0.00 0.00 0.00 78 1007.0
20260505190310 83 168 6.1 11.3 0.00 0.00 0.00 78 1007.0
20260505190211 83 171 6.1 11.3 0.00 0.00 0.00 78 1007.0
20260505190111 83 193 6.1 11.3 0.00 0.00 0.00 78 1007.0
20260505190011 83 227 6.1 11.3 0.00 0.00 0.00 78 1007.1
20260505185910 83 206 6.1 11.3 0.00 0.00 0.00 79 1007.1
20260505185812 82 176 7.0 11.3 0.00 0.00 0.00 79 1007.1
20260505185711 82 172 5.2 13.9 0.00 0.00 0.00 79 1007.1
20260505185611 82 161 6.1 13.9 0.00 0.00 0.00 79 1007.1
20260505185510 82 227 7.0 13.9 0.00 0.00 0.00 79 1007.1
20260505185411 82 171 7.0 13.9 0.00 0.00 0.00 80 1007.1
20260505185310 82 244 5.2 13.9 0.00 0.00 0.00 79 1007.1
20260505185210 81 195 5.2 13.9 0.00 0.00 0.00 79 1007.2
20260505185112 82 234 7.0 15.6 0.00 0.00 0.00 79 1007.2
20260505185010 81 212 7.0 15.6 0.00 0.00 0.00 79 1007.2
20260505184910 81 234 7.8 15.6 0.00 0.00 0.00 79 1007.2
20260505184810 82 0 8.7 15.6 0.00 0.00 0.00 79 1007.2
20260505184712 82 0 7.8 15.6 0.00 0.00 0.00 78 1007.2
20260505184610 82 0 7.8 15.6 0.00 0.00 0.00 78 1007.2
20260505184510 82 0 8.7 15.6 0.00 0.00 0.00 78 1007.2
20260505184411 82 0 7.8 15.6 0.00 0.00 0.00 78 1007.2
20260505184309 82 117 7.0 15.6 0.00 0.00 0.00 78 1007.2
20260505184209 82 0 5.2 15.6 0.00 0.00 0.00 79 1007.2
20260505184110 82 0 5.2 13.0 0.00 0.00 0.00 79 1007.2
20260505184011 82 0 7.0 13.0 0.00 0.00 0.00 78 1007.2
20260505183910 82 0 6.1 13.0 0.00 0.00 0.00 78 1007.1
20260505183811 82 0 5.2 15.6 0.00 0.00 0.00 78 1007.1
20260505183711 82 0 5.2 15.6 0.00 0.00 0.00 79 1007.1
20260505183610 82 130 5.2 15.6 0.00 0.00 0.00 79 1007.1
20260505183510 82 116 6.1 15.6 0.00 0.00 0.00 79 1007.2
20260505183411 82 0 5.2 15.6 0.00 0.00 0.00 79 1007.1
20260505183309 82 0 4.3 15.6 0.00 0.00 0.00 79 1007.1
20260505183211 82 0 5.2 15.6 0.00 0.00 0.00 79 1007.2
20260505183110 82 0 7.0 15.6 0.00 0.00 0.00 79 1007.3
20260505183011 82 0 9.6 15.6 0.00 0.00 0.00 79 1007.2
20260505182910 82 0 8.7 15.6 0.00 0.00 0.00 79 1007.2
20260505182809 82 0 6.1 11.3 0.00 0.00 0.00 80 1007.2
20260505182709 81 130 7.0 11.3 0.00 0.00 0.00 81 1007.3
20260505182610 81 0 5.2 10.4 0.00 0.00 0.00 81 1007.3
20260505182510 81 104 4.3 9.6 0.00 0.00 0.00 81 1007.3
20260505182410 81 0 4.3 9.6 0.00 0.00 0.00 81 1007.3
20260505182311 81 114 3.5 9.6 0.00 0.00 0.00 81 1007.2
20260505182210 81 0 4.3 9.6 0.00 0.00 0.00 81 1007.3
20260505182110 81 0 5.2 10.4 0.00 0.00 0.00 81 1007.3
20260505182010 81 0 5.2 13.0 0.00 0.00 0.00 81 1007.2
20260505181911 81 0 4.3 13.0 0.00 0.00 0.00 81 1007.3
20260505181810 81 0 3.5 13.0 0.00 0.00 0.00 81 1007.3
20260505181709 81 120 3.5 13.0 0.00 0.00 0.00 81 1007.3
20260505181610 81 0 5.2 13.0 0.00 0.00 0.00 81 1007.3
20260505181509 81 107 5.2 13.0 0.00 0.00 0.00 81 1007.3
20260505181409 81 0 6.1 13.0 0.00 0.00 0.00 81 1007.3
20260505181309 81 117 7.0 13.0 0.00 0.00 0.00 81 1007.3
20260505181210 81 0 7.8 13.0 0.00 0.00 0.00 81 1007.2
20260505181110 81 0 6.1 13.0 0.00 0.00 0.00 81 1007.3
20260505181010 81 111 6.1 12.2 0.00 0.00 0.00 81 1007.3
20260505180910 81 0 7.8 12.2 0.00 0.00 0.00 81 1007.3
20260505180810 81 0 7.0 12.2 0.00 0.00 0.00 81 1007.3
20260505180711 81 0 7.0 12.2 0.00 0.00 0.00 81 1007.2
20260505180611 81 113 5.2 12.2 0.00 0.00 0.00 81 1007.4
20260505180509 81 103 3.5 12.2 0.00 0.00 0.00 81 1007.4
20260505180409 81 0 3.5 12.2 0.00 0.00 0.00 81 1007.4
20260505180309 81 28 3.5 12.2 0.00 0.00 0.00 81 1007.4
20260505180210 81 103 5.2 12.2 0.00 0.00 0.00 81 1007.4
20260505180110 81 0 4.3 13.0 0.00 0.00 0.00 81 1007.3
20260505180009 81 92 6.1 13.9 0.00 0.00 0.00 81 1007.3
20260505175909 81 113 7.0 13.9 0.00 0.00 0.00 81 1007.3
20260505175811 81 0 7.0 13.9 0.00 0.00 0.00 81 1007.3
20260505175709 81 0 6.1 13.9 0.00 0.00 0.00 81 1007.4
20260505175609 81 0 4.3 13.9 0.00 0.00 0.00 81 1007.4
20260505175510 81 0 3.5 13.9 0.00 0.00 0.00 81 1007.4
20260505175409 81 103 5.2 13.9 0.00 0.00 0.00 81 1007.4
20260505175309 81 0 7.8 13.9 0.00 0.00 0.00 81 1007.4
20260505175208 81 0 7.8 13.9 0.00 0.00 0.00 80 1007.4
20260505175110 81 0 7.0 13.9 0.00 0.00 0.00 81 1007.5
20260505175010 81 0 7.8 13.0 0.00 0.00 0.00 80 1007.5
20260505174910 81 0 7.8 13.0 0.00 0.00 0.00 80 1007.4
20260505174809 81 0 5.2 11.3 0.00 0.00 0.00 81 1007.4
20260505174708 81 0 4.3 11.3 0.00 0.00 0.00 81 1007.4
20260505174609 81 106 4.3 11.3 0.00 0.00 0.00 81 1007.5
20260505174508 81 0 4.3 11.3 0.00 0.00 0.00 81 1007.5
20260505174409 81 0 3.5 11.3 0.00 0.00 0.00 81 1007.5
20260505174309 81 0 4.3 12.2 0.00 0.00 0.00 81 1007.6
20260505174209 80 0 6.1 12.2 0.00 0.00 0.00 81 1007.5
20260505174109 80 102 7.8 12.2 0.00 0.00 0.00 81 1007.5
20260505174008 80 116 7.8 12.2 0.00 0.00 0.00 81 1007.6
20260505173909 80 103 7.0 12.2 0.00 0.00 0.00 81 1007.6
20260505173811 80 96 6.1 12.2 0.00 0.00 0.00 81 1007.6
20260505173709 80 0 6.1 13.0 0.00 0.00 0.00 81 1007.6
20260505173608 80 0 6.1 13.0 0.00 0.00 0.00 81 1007.6
20260505173508 80 85 6.1 13.0 0.00 0.00 0.00 81 1007.6
20260505173410 80 0 6.1 13.0 0.00 0.00 0.00 81 1007.7
20260505173309 80 0 5.2 13.0 0.00 0.00 0.00 81 1007.7
20260505173209 80 0 5.2 13.0 0.00 0.00 0.00 81 1007.7
20260505173109 80 0 6.1 13.0 0.00 0.00 0.00 81 1007.7
20260505173009 80 0 5.2 13.0 0.00 0.00 0.00 82 1007.7
20260505172909 80 110 7.0 13.0 0.00 0.00 0.00 81 1007.7
20260505172808 80 0 7.8 13.0 0.00 0.00 0.00 81 1007.7
20260505172711 80 0 7.8 13.0 0.00 0.00 0.00 81 1007.7
20260505172610 80 97 6.1 13.0 0.00 0.00 0.00 82 1007.8
20260505172508 80 90 4.3 13.0 0.00 0.00 0.00 82 1007.7
20260505172410 80 0 5.2 13.0 0.00 0.00 0.00 82 1007.7
20260505172308 80 118 7.0 13.0 0.00 0.00 0.00 82 1007.7
20260505172208 80 113 6.1 13.0 0.00 0.00 0.00 82 1007.7
20260505172109 80 0 7.8 13.0 0.00 0.00 0.00 82 1007.7
20260505172009 80 0 7.8 13.0 0.00 0.00 0.00 83 1007.7
20260505171908 80 106 7.0 13.0 0.00 0.00 0.00 83 1007.8
20260505171808 80 0 6.1 13.0 0.00 0.00 0.00 83 1007.7
20260505171710 79 94 6.1 12.2 0.00 0.00 0.00 83 1007.8
20260505171608 79 104 7.0 10.4 0.00 0.00 0.00 84 1007.8
20260505171509 79 0 6.1 12.2 0.00 0.00 0.00 84 1007.7
20260505171408 79 0 4.3 12.2 0.00 0.00 0.00 84 1007.7
20260505171309 79 0 5.2 12.2 0.00 0.00 0.00 84 1007.8
20260505171207 79 110 6.1 12.2 0.00 0.00 0.00 84 1007.8
20260505171108 79 123 6.1 12.2 0.00 0.00 0.00 84 1007.8
20260505171010 79 102 6.1 12.2 0.00 0.00 0.00 84 1007.9
20260505170909 79 114 5.2 12.2 0.00 0.00 0.00 84 1007.9
20260505170808 79 86 6.1 12.2 0.00 0.00 0.00 84 1007.9
20260505170710 79 109 7.0 12.2 0.00 0.00 0.00 84 1007.8
20260505170611 79 117 7.8 12.2 0.00 0.00 0.00 84 1007.8
20260505170508 79 106 6.1 12.2 0.00 0.00 0.00 84 1007.9
20260505170408 79 110 4.3 9.6 0.00 0.00 0.00 83 1007.9
20260505170310 79 97 4.3 9.6 0.00 0.00 0.00 83 1007.9
20260505170208 79 107 5.2 9.6 0.00 0.00 0.00 83 1007.8
20260505170108 79 99 5.2 9.6 0.00 0.00 0.00 82 1007.8
20260505170008 80 0 4.3 13.0 0.00 0.00 0.00 82 1007.8
20260505165909 80 109 4.3 13.0 0.00 0.00 0.00 82 1007.8
20260505165808 80 100 4.3 13.0 0.00 0.00 0.00 82 1007.8
20260505165708 80 0 3.5 13.0 0.00 0.00 0.00 82 1007.8
20260505165608 80 104 5.2 13.0 0.00 0.00 0.00 82 1007.9
20260505165507 80 114 6.1 13.0 0.00 0.00 0.00 82 1007.8
20260505165407 80 100 6.1 13.0 0.00 0.00 0.00 82 1007.8
20260505165309 80 0 6.1 13.0 0.00 0.00 0.00 82 1007.8
20260505165208 80 113 7.8 13.0 0.00 0.00 0.00 82 1007.9
20260505165108 80 0 9.6 13.0 0.00 0.00 0.00 82 1007.9
20260505165008 80 104 8.7 12.2 0.00 0.00 0.00 82 1007.8
20260505164909 80 107 7.0 13.9 0.00 0.00 0.00 82 1007.9
20260505164808 80 120 6.1 13.9 0.00 0.00 0.00 82 1007.9
20260505164707 80 107 7.0 13.9 0.00 0.00 0.00 81 1007.9
20260505164610 80 128 6.1 13.9 0.00 0.00 0.00 82 1007.8
20260505164509 80 89 6.1 13.9 0.00 0.00 0.00 82 1007.8
20260505164408 80 0 7.0 13.9 0.00 0.00 0.00 82 1007.8
20260505164307 80 104 5.2 13.9 0.00 0.00 0.00 82 1007.8
20260505164209 80 94 5.2 13.9 0.00 0.00 0.00 82 1007.9
20260505164107 80 0 7.0 14.8 0.00 0.00 0.00 82 1007.8
20260505164007 80 116 7.0 14.8 0.00 0.00 0.00 82 1007.8
20260505163910 80 104 6.1 14.8 0.00 0.00 0.00 82 1007.8
20260505163808 80 79 4.3 14.8 0.00 0.00 0.00 82 1007.8
20260505163707 80 86 5.2 14.8 0.00 0.00 0.00 82 1007.8
20260505163609 80 0 6.1 14.8 0.00 0.00 0.00 82 1007.8
20260505163508 80 102 7.0 14.8 0.00 0.00 0.00 82 1007.8
20260505163407 80 94 7.8 14.8 0.00 0.00 0.00 82 1007.8
20260505163307 80 109 7.8 14.8 0.00 0.00 0.00 82 1007.8
20260505163208 80 102 7.0 14.8 0.00 0.00 0.00 82 1007.8
20260505163107 80 0 5.2 11.3 0.00 0.00 0.00 82 1007.8
20260505163009 80 116 6.1 11.3 0.00 0.00 0.00 82 1007.8
20260505162908 80 100 7.0 11.3 0.00 0.00 0.00 82 1007.8
20260505162808 80 82 6.1 11.3 0.00 0.00 0.00 82 1007.8
20260505162707 80 104 5.2 11.3 0.00 0.00 0.00 82 1007.7
20260505162607 80 104 5.2 11.3 0.00 0.00 0.00 82 1007.7
20260505162508 79 107 5.2 11.3 0.00 0.00 0.00 82 1007.7
20260505162407 79 99 6.1 11.3 0.00 0.00 0.00 83 1007.7
20260505162307 79 130 7.0 11.3 0.00 0.00 0.00 82 1007.8
20260505162208 79 107 6.1 11.3 0.00 0.00 0.00 82 1007.7
20260505162107 79 116 5.2 11.3 0.00 0.00 0.00 82 1007.8
20260505162006 79 103 4.3 11.3 0.00 0.00 0.00 83 1007.9
20260505161907 79 124 5.2 11.3 0.00 0.00 0.00 83 1007.8
20260505161809 79 117 6.1 11.3 0.00 0.00 0.00 83 1007.7
20260505161708 79 104 6.1 11.3 0.00 0.00 0.00 83 1007.8
20260505161606 79 106 4.3 8.7 0.00 0.00 0.00 83 1007.7
20260505161507 79 8 3.5 8.7 0.00 0.00 0.00 83 1007.7
20260505161407 79 100 2.6 8.7 0.00 0.00 0.00 83 1007.7
20260505161307 79 135 2.6 8.7 0.00 0.00 0.00 83 1007.7
20260505161207 79 93 3.5 8.7 0.00 0.00 0.00 83 1007.7
20260505161107 79 107 5.2 8.7 0.00 0.00 0.00 83 1007.7
20260505161007 79 111 5.2 8.7 0.00 0.00 0.00 84 1007.7
20260505160906 79 97 3.5 9.6 0.00 0.00 0.00 84 1007.7
20260505160806 79 110 3.5 9.6 0.00 0.00 0.00 84 1007.7
20260505160707 79 94 5.2 9.6 0.00 0.00 0.00 83 1007.7
20260505160607 79 96 5.2 9.6 0.00 0.00 0.00 84 1007.7
20260505160507 79 113 3.5 9.6 0.00 0.00 0.00 84 1007.8
20260505160407 79 86 3.5 9.6 0.00 0.00 0.00 84 1007.8
20260505160307 79 86 5.2 9.6 0.00 0.00 0.00 83 1007.8
20260505160206 79 92 5.2 9.6 0.00 0.00 0.00 83 1007.7
20260505160107 79 103 5.2 9.6 0.00 0.00 0.00 83 1007.7
20260505153303 78 155 7.0 10.4 0.00 0.00 0.00 83 1007.5
20260505153202 78 125 7.0 10.4 0.00 0.00 0.00 83 1007.6
20260505153103 78 125 5.2 10.4 0.00 0.00 0.00 83 1007.6
20260505153004 78 130 5.2 10.4 0.00 0.00 0.00 83 1007.6
20260505152903 78 87 5.2 10.4 0.00 0.00 0.00 83 1007.6
20260505152802 78 104 5.2 10.4 0.00 0.00 0.00 83 1007.6
20260505152703 78 107 5.2 10.4 0.00 0.00 0.00 83 1007.6
20260505152603 78 109 4.3 10.4 0.00 0.00 0.00 83 1007.6
20260505152503 78 110 5.2 10.4 0.00 0.00 0.00 83 1007.5
20260505152403 78 78 6.1 10.4 0.00 0.00 0.00 83 1007.6
20260505152305 78 103 5.2 10.4 0.00 0.00 0.00 83 1007.5
20260505152203 78 94 6.1 10.4 0.00 0.00 0.00 83 1007.6
20260505152103 78 111 6.1 10.4 0.00 0.00 0.00 83 1007.5
20260505152003 78 117 5.2 10.4 0.00 0.00 0.00 83 1007.5
20260505151902 78 117 5.2 11.3 0.00 0.00 0.00 83 1007.5
20260505151802 78 100 4.3 11.3 0.00 0.00 0.00 84 1007.4
20260505151703 78 87 4.3 11.3 0.00 0.00 0.00 84 1007.4
20260505151603 78 124 4.3 13.0 0.00 0.00 0.00 84 1007.5
20260505151503 78 94 3.5 13.0 0.00 0.00 0.00 84 1007.5
20260505151403 78 140 5.2 13.0 0.00 0.00 0.00 84 1007.4
20260505151303 78 118 5.2 13.0 0.00 0.00 0.00 84 1007.5